ECMWFFLT1_250_spd_057.txt.gz
Wind_Speed
41 42 43 44 45 46 48 48 48 49 48 47 45 42 39 37 34 32 32 33 35 37 39 39 40 40 41 41 42 43 44 43 43 43 44 43 40 36 33 30 29 31 32 32 30 31 35 36 36 36 38 39 39 38 38 38 37 37 39 41 41 41 42
39 40 41 43 43 43 43 45 46 46 46 45 43 40 39 36 33 30 29 30 32 34 36 38 39 40 40 41 41 42 43 42 42 42 41 39 36 33 31 29 28 30 31 30 28 29 34 37 37 38 38 40 43 43 42 43 43 42 43 46 47 46 46
38 41 44 45 44 43 42 43 44 45 45 44 42 39 38 35 32 29 27 26 25 26 27 29 30 32 33 35 37 39 40 40 40 39 36 34 33 31 29 27 27 28 29 28 26 25 31 36 37 39 40 41 44 46 45 45 46 47 47 48 50 51 51
38 40 43 43 43 43 43 42 41 42 43 43 41 39 37 35 32 29 27 24 23 22 23 24 25 27 29 31 33 35 35 35 34 32 31 30 29 28 27 26 26 27 28 28 27 25 28 32 34 37 40 42 44 47 48 48 49 50 51 51 51 52 52
36 38 39 39 39 39 40 40 39 39 39 40 40 38 35 34 32 30 28 26 25 25 26 27 28 29 30 29 29 29 29 28 28 27 26 26 26 26 25 24 25 26 26 28 28 29 29 30 32 35 38 42 44 45 47 49 51 53 54 56 56 56 56
36 36 37 38 40 41 41 41 39 38 38 37 37 36 35 34 33 31 29 28 28 29 30 32 32 33 31 28 26 26 25 25 25 25 24 24 24 24 23 23 23 23 25 27 28 29 31 31 32 34 36 39 41 42 43 44 47 50 53 56 58 58 59
41 41 40 41 42 44 43 41 40 38 37 35 35 35 35 34 34 32 31 32 32 33 34 34 34 32 29 27 26 26 25 24 23 22 22 21 21 21 21 21 21 22 24 26 28 29 30 30 31 32 33 35 37 39 40 40 41 43 45 49 52 53 55
46 46 45 44 44 45 43 40 39 37 36 35 34 34 34 33 33 33 33 34 34 35 35 34 33 30 28 28 29 27 25 24 22 22 21 21 21 21 21 21 21 22 24 26 28 29 30 30 30 30 30 31 33 34 35 36 36 37 38 40 41 43 45
48 49 49 48 46 46 43 39 36 35 36 36 36 35 34 34 34 35 35 36 36 37 36 35 34 32 31 32 31 29 27 26 24 24 25 25 25 25 25 24 24 24 25 27 29 30 30 31 31 31 31 30 31 31 32 32 33 34 35 36 37 38 39
50 49 49 49 48 47 45 42 39 38 39 40 40 40 39 39 39 39 38 37 37 37 37 37 36 34 34 35 33 31 29 28 28 29 30 30 30 30 29 29 28 28 28 29 31 33 33 33 34 34 34 34 33 33 33 33 32 32 33 34 35 36 38
50 48 48 49 49 48 48 46 44 42 42 43 44 44 45 45 44 43 40 39 39 39 39 39 37 36 37 37 35 33 32 31 32 32 33 33 34 34 34 33 33 32 32 33 34 36 36 37 37 37 38 38 37 37 36 35 33 32 32 32 33 34 35
53 50 49 49 49 50 51 51 50 47 46 46 46 47 47 47 47 45 43 42 41 41 41 40 40 40 40 38 36 35 35 35 35 35 36 37 39 40 40 39 38 37 37 37 37 38 39 40 40 40 40 41 40 39 39 38 37 36 35 35 35 35 35
57 55 53 51 51 52 54 54 54 53 51 50 50 49 49 48 48 47 46 45 44 44 44 43 43 43 41 39 38 38 38 38 39 40 42 44 46 46 46 45 44 43 42 41 41 41 41 41 42 42 42 42 42 42 42 42 42 43 42 41 40 39 38
57 58 56 54 54 54 55 56 56 56 54 54 53 53 52 51 50 49 49 49 48 48 47 46 45 44 42 41 40 40 41 42 43 44 47 49 51 52 52 51 49 48 47 46 45 44 44 43 43 44 44 44 45 45 45 45 46 48 48 47 45 44 43
56 57 55 54 54 53 54 55 56 56 56 55 55 55 55 54 54 53 53 53 53 52 52 51 49 47 44 43 43 44 44 44 46 48 51 55 57 57 56 54 52 52 51 50 49 48 47 47 46 46 47 47 47 48 48 48 49 50 50 50 49 48 47
56 54 52 53 55 54 54 56 57 58 58 58 58 58 58 58 57 56 55 55 55 54 54 53 52 50 48 48 48 48 49 49 51 55 59 62 62 60 58 56 54 53 53 53 53 52 51 50 50 50 51 51 52 52 51 51 52 52 52 52 51 51 50
55 53 51 53 56 57 57 58 58 59 59 59 58 58 59 59 57 57 57 57 56 57 57 56 56 54 52 52 52 53 55 57 60 63 65 65 64 61 58 55 53 52 52 53 54 55 55 54 54 54 55 56 56 56 56 56 56 55 55 55 54 53 53
57 56 55 56 56 57 59 60 60 61 60 60 59 60 60 60 59 59 59 60 60 60 60 59 59 57 57 57 57 58 60 64 66 66 66 64 63 59 56 52 50 49 49 51 53 55 56 57 57 58 59 60 60 60 60 60 59 59 58 58 57 56 55
61 61 61 59 57 56 57 58 59 61 61 62 61 61 61 60 60 60 62 63 63 63 63 62 61 60 60 61 62 64 67 68 66 63 61 60 58 55 51 49 47 46 47 48 50 52 54 55 56 57 59 60 60 61 62 61 60 59 59 59 58 57 56
61 62 62 60 57 57 57 57 59 60 60 61 60 60 61 61 61 61 62 63 63 63 63 63 63 64 65 68 69 68 66 61 55 52 50 49 50 49 48 46 45 45 45 46 48 50 51 52 54 55 57 58 59 60 60 60 59 59 59 59 58 57 56
54 58 58 56 54 56 57 58 60 61 61 61 61 61 61 60 60 60 62 65 66 65 64 64 66 68 68 66 62 56 51 46 41 39 38 39 42 44 45 45 46 46 45 46 47 49 49 50 51 53 54 56 57 57 58 58 58 59 59 58 57 56 55
53 54 53 54 55 58 60 62 64 66 66 66 66 66 64 62 61 61 62 64 62 62 64 63 63 63 59 53 47 43 43 41 38 36 36 37 39 41 44 45 46 47 47 47 48 49 49 50 50 51 53 54 55 55 55 56 57 57 57 55 55 55 55
59 60 59 60 60 59 58 61 65 68 69 71 71 71 68 63 57 51 50 52 51 52 56 56 56 59 58 55 54 51 47 43 41 40 38 38 41 46 49 51 52 52 51 51 51 51 51 51 51 52 52 53 54 54 54 55 55 56 55 54 54 55 55
71 71 71 70 67 64 63 65 68 70 71 72 72 71 68 63 56 50 48 51 51 53 57 59 62 65 63 62 62 58 51 47 48 48 49 52 57 61 63 62 61 59 56 55 54 54 54 54 54 54 54 54 55 54 54 54 54 55 55 54 55 56 56
77 76 75 74 71 68 67 68 68 67 67 68 67 67 67 65 63 62 60 58 58 61 64 65 66 66 65 65 64 60 57 57 59 62 65 68 69 68 67 65 63 61 59 58 57 56 56 56 56 56 57 56 56 56 55 55 55 55 55 55 55 55 57
78 76 74 72 67 62 60 62 65 67 69 71 72 73 74 71 69 68 67 66 67 70 72 70 67 66 67 68 68 67 68 72 75 76 76 74 70 68 66 64 62 61 60 60 59 58 58 57 57 58 58 58 58 58 57 57 56 56 56 56 56 56 56
78 78 76 73 69 67 66 69 73 76 78 80 81 81 80 77 73 70 69 67 67 70 72 72 73 73 75 78 81 84 87 89 89 85 81 76 73 70 66 64 63 62 61 61 61 61 61 60 60 59 59 60 60 60 60 59 59 58 57 57 57 57 57
76 77 78 77 77 77 78 79 80 81 81 81 82 82 81 79 78 77 77 77 79 81 83 85 87 88 90 93 95 95 96 94 91 86 80 75 72 69 67 64 64 64 64 64 64 64 64 64 63 63 63 63 63 63 62 62 62 61 60 59 59 58 58
77 78 79 80 82 83 85 85 86 87 86 85 84 83 82 81 81 81 83 85 87 90 92 94 95 96 97 98 97 97 95 93 89 84 78 72 69 68 67 66 65 66 67 67 67 67 67 66 66 67 67 67 67 67 67 67 67 66 65 64 62 62 61
83 83 83 83 85 86 87 89 90 90 90 90 89 89 88 87 87 86 86 86 88 89 90 91 92 92 93 95 95 95 93 90 87 83 79 74 69 67 67 67 68 69 69 70 70 70 71 70 69 69 69 70 69 70 70 71 71 71 71 70 68 67 65
86 86 87 88 89 90 91 91 92 93 94 94 94 94 95 94 94 94 94 94 94 94 94 94 94 93 92 92 92 92 90 88 85 83 80 76 74 71 69 68 68 69 70 72 73 73 74 73 72 71 71 72 71 71 72 73 73 73 73 72 71 70 70
81 83 86 88 89 91 92 93 94 94 95 96 97 97 97 97 97 98 98 98 98 97 97 95 93 91 90 88 87 86 85 83 81 78 76 73 72 71 70 68 67 68 69 71 73 74 75 74 73 72 72 72 72 72 73 74 74 73 72 72 72 71 71
74 76 79 81 83 84 86 87 88 89 90 91 92 92 92 92 92 92 92 92 91 90 89 87 85 83 82 81 80 79 79 78 75 74 72 69 67 67 67 67 67 66 67 68 70 71 72 72 71 71 70 70 69 69 70 71 72 72 71 70 70 71 70
72 74 76 77 78 79 79 80 81 81 82 83 83 83 83 83 83 83 83 83 82 82 82 80 79 78 78 78 77 76 76 76 75 73 71 69 67 64 63 66 68 66 64 65 66 66 67 67 67 66 65 65 64 65 65 65 67 68 68 67 67 67 66
72 74 76 77 78 78 79 79 79 79 79 79 79 80 80 80 80 80 80 80 80 80 80 79 78 78 78 78 77 76 76 76 76 75 73 72 70 65 63 66 69 67 65 64 65 65 65 64 64 63 62 62 62 62 62 62 63 64 65 65 64 63 61
74 76 77 78 79 79 80 80 80 81 81 80 80 81 81 81 81 81 81 81 81 81 82 81 79 79 79 79 78 78 78 78 78 78 77 75 73 69 66 68 70 69 69 68 67 67 66 66 65 64 64 63 63 62 62 61 61 61 62 62 61 61 59
79 79 79 80 80 81 81 82 82 83 83 82 82 83 83 84 84 83 83 83 83 84 84 83 82 80 80 79 79 79 79 79 80 80 80 79 77 73 71 72 72 72 72 72 71 71 70 69 69 68 67 66 65 65 64 63 62 62 62 61 61 62 61

ECMWFFLT1_250_spd_063.txt.gz
Wind_Speed
39 40 40 40 40 40 40 41 42 42 43 44 45 46 46 44 42 41 40 40 41 42 43 43 40 37 35 36 38 39 39 37 36 36 37 38 40 41 42 43 44 45 45 45 45 45 46 46 47 49 50 50 50 51 52 52 52 52 54 54 52 49 46
40 40 40 41 41 41 41 41 41 41 41 42 42 42 42 41 40 40 39 39 39 39 38 37 34 33 34 36 38 37 36 34 33 35 37 38 40 42 43 43 44 45 46 47 47 48 48 49 50 52 53 54 55 56 57 57 58 58 59 59 56 52 48
47 45 44 44 44 44 43 42 41 41 40 39 38 38 37 37 37 37 37 36 35 34 33 31 31 32 34 36 37 36 33 31 32 33 35 36 38 41 43 45 46 46 47 48 49 50 51 52 53 55 56 57 58 58 59 60 60 61 60 59 57 53 50
52 52 50 49 47 46 45 44 43 41 40 39 37 37 37 37 37 37 37 36 34 32 30 29 31 33 34 36 36 33 30 28 29 30 30 30 31 33 37 40 42 43 45 46 48 49 50 51 51 52 52 52 52 53 53 53 53 53 53 53 53 51 50
51 52 52 51 48 47 46 45 45 43 42 41 41 40 39 38 38 38 37 35 32 30 29 30 33 34 35 35 33 30 27 27 27 27 27 27 28 30 32 35 36 38 40 41 43 44 43 42 41 40 40 40 40 41 42 43 43 44 45 47 49 49 48
51 51 51 50 48 46 45 44 44 43 42 42 42 41 40 39 38 37 36 34 32 31 31 33 35 36 36 35 32 28 26 27 28 29 29 30 32 34 36 37 36 36 35 35 36 36 35 34 32 30 29 28 27 29 31 33 34 36 39 41 44 45 46
51 50 50 49 48 46 44 43 42 41 40 39 40 40 39 38 37 36 35 34 34 34 36 38 39 39 39 37 34 29 27 26 27 29 30 32 33 34 35 35 34 32 32 32 33 33 31 29 29 28 26 23 21 22 24 26 28 31 33 36 38 41 43
51 50 49 49 48 46 44 43 41 40 39 38 39 40 40 39 37 37 37 38 38 39 40 41 42 42 41 40 37 33 30 28 29 30 32 31 31 30 31 32 32 32 32 33 34 34 32 30 29 29 27 24 21 20 21 23 24 27 30 33 36 38 40
51 50 50 49 49 49 47 45 43 42 40 38 38 39 40 40 40 40 40 40 41 41 42 43 43 43 42 40 39 37 35 33 34 35 35 34 33 33 32 32 33 35 35 34 34 35 35 34 33 32 31 28 25 23 23 23 24 26 28 30 33 36 39
53 51 50 50 50 51 51 50 48 46 44 42 40 40 41 42 43 43 42 42 43 44 44 45 45 43 42 40 39 38 38 38 39 40 40 39 38 38 37 37 37 38 37 37 35 35 36 37 38 37 36 35 33 32 31 30 29 29 30 30 31 34 37
54 54 53 51 51 51 52 52 52 51 49 48 47 46 45 46 46 46 46 46 47 47 47 47 46 45 43 41 40 40 40 41 42 43 43 44 43 43 42 41 40 39 39 38 38 37 37 38 40 41 41 40 39 39 39 37 35 34 35 35 34 34 36
53 54 54 54 53 53 53 53 53 53 53 52 52 52 51 51 51 51 51 51 51 51 50 49 47 45 44 43 43 43 44 45 46 46 47 47 46 45 44 44 43 41 40 40 40 40 39 39 40 42 43 43 42 41 41 40 40 40 40 39 38 37 37
51 52 53 53 54 55 55 54 53 53 53 53 53 54 54 53 53 53 54 54 54 53 52 51 49 48 47 47 47 47 48 49 49 50 49 49 48 47 46 45 44 43 42 42 42 42 41 41 41 42 44 44 44 43 42 41 41 42 42 41 40 39 38
50 50 51 51 52 54 55 56 55 54 53 53 53 54 54 53 54 54 54 55 55 55 54 54 53 52 51 51 50 50 51 51 52 51 50 50 49 47 47 46 46 45 44 45 45 44 44 43 42 43 44 44 44 44 40 37 36 38 40 41 40 39 39
49 49 49 50 51 53 54 55 55 55 54 53 53 53 52 52 52 53 53 55 56 56 57 56 56 55 54 53 53 53 53 54 53 51 50 49 48 48 48 47 47 47 47 47 47 47 46 46 45 45 45 44 43 39 33 30 32 34 35 36 36 36 36
47 47 48 49 49 51 54 55 55 55 55 54 54 53 52 51 52 53 54 55 55 56 57 57 57 55 54 54 54 54 55 53 51 48 47 48 49 49 48 48 47 48 48 49 50 51 51 50 48 47 45 42 37 32 30 32 35 34 31 29 28 27 29
45 45 46 46 46 48 51 53 55 55 55 55 55 54 54 53 52 53 54 54 54 55 55 55 55 53 53 53 54 54 53 50 48 48 49 50 49 48 48 48 49 50 51 52 53 54 53 50 47 44 40 35 33 33 36 40 40 34 30 29 28 29 33
48 47 46 46 46 48 51 53 54 53 53 53 53 53 53 51 50 50 51 52 53 54 54 55 55 55 55 55 55 54 53 52 52 53 54 54 51 49 49 50 52 53 54 54 54 51 47 44 41 39 38 37 38 41 44 44 42 37 33 34 37 42 45
52 52 51 52 53 53 52 52 53 53 52 51 50 50 49 48 48 49 50 53 54 56 56 56 56 57 57 57 57 56 56 58 59 60 58 56 53 52 53 55 56 56 55 54 52 47 43 41 40 42 45 46 47 48 49 48 45 41 36 39 45 50 53
54 55 56 56 57 55 51 51 54 53 52 51 50 49 49 49 49 50 53 56 57 58 57 57 57 58 59 60 60 61 62 63 62 60 57 55 54 55 57 58 57 55 53 52 51 48 45 44 46 49 52 53 53 54 55 54 51 47 45 47 51 54 58
53 54 55 56 56 55 54 53 54 53 52 51 51 51 52 52 53 53 56 58 58 59 59 60 60 60 61 61 60 60 60 58 56 53 52 51 53 55 56 56 55 52 50 49 50 51 51 50 51 54 56 57 58 59 60 60 58 55 53 54 55 59 65
52 52 53 53 54 55 56 56 54 54 54 53 54 54 55 58 59 60 60 61 62 64 64 64 63 61 59 57 57 56 56 55 53 51 50 50 52 52 52 53 52 51 50 50 50 52 55 57 59 60 60 60 62 64 65 65 62 60 58 59 61 65 71
54 54 54 53 52 53 55 56 55 56 57 56 56 56 57 60 63 64 65 66 67 68 66 64 62 61 58 57 57 58 58 57 55 52 51 51 53 53 53 53 52 50 49 50 51 53 57 60 63 64 65 66 67 69 70 69 66 64 63 63 66 72 77
55 56 56 56 55 54 54 55 55 57 58 58 58 58 59 61 63 64 65 64 63 63 62 61 61 61 60 60 60 60 59 58 57 55 54 53 54 55 55 54 54 53 50 50 53 56 59 61 65 67 69 70 72 73 73 71 69 68 67 68 73 78 81
53 53 54 55 55 54 54 55 55 56 56 56 57 59 60 60 61 62 61 60 60 59 58 58 58 59 59 58 59 59 58 57 58 59 59 57 56 56 57 56 58 61 59 58 61 64 65 66 69 71 72 74 76 76 75 73 71 71 71 75 79 82 81
51 52 53 54 54 54 53 54 55 55 54 53 54 56 57 58 60 61 61 60 61 62 60 58 58 58 59 59 59 59 59 59 60 62 64 62 59 58 60 63 66 69 68 66 68 69 70 71 73 74 74 76 79 79 77 75 75 75 78 82 84 84 80
50 53 54 55 56 56 54 55 55 54 54 54 54 55 57 59 60 61 62 62 62 63 63 62 61 61 61 61 60 60 60 61 62 64 64 63 63 64 68 72 73 72 71 70 70 70 71 73 75 76 76 79 81 81 79 78 79 81 84 86 86 82 77
52 54 56 56 57 58 58 57 56 54 54 56 57 59 61 63 64 66 68 68 66 65 65 65 65 65 65 65 64 63 63 63 64 65 66 67 70 73 76 77 75 73 72 72 72 72 72 74 75 76 79 82 83 83 82 83 85 87 89 88 85 80 74
56 58 59 57 57 58 60 60 59 57 58 61 64 67 68 69 70 71 72 73 72 71 70 69 69 68 68 69 69 67 67 68 70 71 72 73 75 76 76 76 74 72 72 72 72 73 73 74 76 80 84 86 86 86 87 89 90 91 90 87 83 78 72
58 60 63 62 59 59 61 63 65 65 66 68 71 74 75 75 76 77 77 77 76 75 75 74 73 73 72 72 71 70 71 74 75 76 77 77 77 77 77 76 74 74 74 74 75 76 76 78 82 85 88 88 89 90 91 92 92 91 90 86 82 77 72
61 63 65 66 65 65 65 67 69 71 72 73 74 76 77 77 78 79 80 80 80 78 78 77 78 78 78 77 76 76 77 79 81 81 81 80 80 79 79 79 78 78 78 79 79 80 82 84 86 88 89 90 92 92 93 92 91 90 88 85 81 77 73
73 73 72 71 71 72 72 71 72 72 73 74 75 75 75 75 76 77 78 79 81 81 81 81 82 82 83 84 83 83 84 85 87 87 87 85 85 84 84 83 82 82 81 81 81 83 85 88 89 91 92 93 94 94 94 92 91 88 86 84 81 78 75
84 83 82 81 79 79 79 78 77 77 76 77 76 76 75 75 74 75 76 77 79 81 82 83 84 85 87 88 89 90 90 91 92 92 92 92 92 91 90 88 87 87 86 86 88 90 92 94 95 95 95 94 92 92 91 90 88 86 85 83 81 79 77
85 85 85 85 85 85 86 86 85 85 85 85 84 82 80 78 78 78 80 80 81 83 84 85 86 88 90 91 92 93 94 95 95 96 97 97 97 96 95 95 95 95 95 95 96 96 96 96 95 94 92 91 89 88 87 87 86 85 85 84 83 82 80
81 80 80 81 83 84 86 88 88 90 91 92 92 92 90 89 89 90 91 92 93 93 93 93 94 95 96 97 98 98 98 98 98 99 100 100 100 101 101 100 100 99 98 98 97 96 95 93 92 90 89 87 87 86 86 86 86 86 85 85 85 84 83
80 78 77 77 78 80 82 84 84 85 86 88 90 92 93 94 95 97 97 98 98 98 98 98 99 101 102 102 102 102 102 101 101 101 101 101 101 100 100 99 98 97 96 95 94 93 92 91 90 89 88 87 87 87 86 86 86 86 86 86 85 85 85
83 82 80 78 78 79 81 82 83 82 82 82 83 84 87 89 91 93 95 96 96 97 97 98 100 101 102 103 103 103 103 101 100 100 99 99 98 96 94 93 93 92 92 91 90 90 90 90 90 90 90 89 89 88 88 87 87 87 87 86 86 86 86

ECMWFFLT1_250_spd_069.txt.gz
Wind_Speed
47 47 47 46 45 44 43 42 41 40 38 37 35 35 36 36 36 35 33 31 29 28 27 27 28 29 30 30 31 31 31 31 30 31 32 32 30 26 24 23 23 23 21 20 20 21 22 24 25 27 30 34 37 39 41 42 43 44 45 45 46 46 47
45 45 44 42 40 39 39 39 39 38 36 35 35 34 35 35 35 34 32 30 29 29 30 31 32 32 31 31 31 31 30 30 30 30 31 30 29 27 25 23 22 22 20 19 19 19 20 21 22 23 24 27 30 33 36 38 40 42 43 43 44 44 44
41 41 40 38 37 37 38 37 37 37 36 35 34 34 34 34 34 33 33 32 32 33 35 37 37 36 35 34 34 32 32 31 31 30 30 30 30 29 27 24 23 22 21 20 20 20 20 21 21 22 24 25 27 29 31 33 34 35 36 36 36 36 36
39 39 38 38 37 36 35 34 34 35 35 35 34 34 34 34 35 36 36 37 38 40 41 42 41 40 39 38 36 35 33 32 31 30 30 31 31 30 28 26 25 23 23 23 22 22 21 20 21 22 24 25 26 27 28 30 31 31 32 32 32 32 32
40 40 39 38 37 35 33 33 32 33 33 34 34 34 35 36 37 38 40 41 42 43 44 43 42 41 40 39 37 36 34 32 31 30 31 31 32 31 29 28 26 25 25 25 24 23 22 22 22 23 24 25 25 26 27 29 30 31 32 31 31 31 31
38 40 40 39 38 37 36 34 34 34 34 34 34 34 35 36 37 39 40 41 41 41 41 41 40 39 38 38 37 35 33 32 31 31 31 32 32 32 31 30 28 27 27 27 27 26 25 24 25 26 27 27 28 28 29 31 32 33 33 32 31 31 31
39 40 40 40 39 39 37 36 35 35 35 35 35 35 36 37 38 39 40 40 40 40 39 39 38 37 37 36 35 34 32 31 31 31 32 32 33 33 33 32 31 30 29 29 29 29 28 28 28 29 30 31 31 32 33 34 34 34 34 34 33 33 33
44 42 40 40 40 39 38 37 36 35 35 35 35 35 36 37 39 40 40 40 40 39 38 37 36 35 34 34 33 33 33 32 32 33 33 34 34 35 35 34 33 33 32 32 31 31 31 31 31 32 33 34 35 35 36 36 36 36 36 36 36 36 36
43 41 40 39 40 40 39 39 38 37 37 36 36 36 36 36 37 38 39 39 39 39 39 38 37 36 35 34 34 34 34 34 34 34 35 36 36 36 36 36 36 35 35 34 33 33 33 33 34 35 36 36 37 38 38 38 38 37 37 38 39 39 39
39 38 37 37 37 38 38 39 39 38 38 38 37 37 36 35 34 35 36 38 39 39 39 39 39 38 37 37 36 36 36 36 36 36 36 37 37 37 38 38 38 37 37 36 35 35 35 36 37 38 38 39 40 40 41 41 40 39 38 39 40 41 41
38 37 36 36 37 38 39 41 41 40 39 38 38 37 36 35 34 34 34 36 38 39 39 39 39 39 39 38 38 37 37 37 37 37 37 38 39 39 40 40 39 39 38 37 37 36 37 38 40 40 41 41 42 43 43 43 43 42 40 39 41 42 41
40 38 38 39 39 39 39 39 39 38 37 36 36 35 35 35 34 34 35 36 37 38 40 40 41 41 40 40 40 39 39 39 39 39 39 40 41 41 41 41 40 40 40 39 38 38 39 40 41 42 43 44 45 45 45 46 46 45 42 41 42 43 41
42 39 39 39 38 38 37 36 35 35 35 35 35 35 36 36 36 36 36 37 38 39 40 41 42 43 43 42 42 41 41 41 41 41 41 41 41 42 42 42 42 41 41 40 40 40 41 42 43 44 45 46 47 48 47 47 47 46 44 43 44 44 43
42 40 38 38 37 36 35 34 34 34 34 34 34 34 33 34 35 36 37 38 39 40 40 41 41 42 43 43 42 42 42 42 42 42 41 41 41 41 41 41 41 41 41 41 42 43 44 44 45 46 47 48 49 49 49 49 48 47 47 47 47 46 45
40 40 40 40 40 38 36 35 34 33 32 31 30 30 31 32 33 34 36 37 38 39 40 40 40 41 41 41 41 41 42 42 42 41 41 40 40 40 40 40 41 41 42 43 44 45 46 47 48 49 50 49 48 49 49 50 49 49 51 51 49 47 45
40 41 40 39 38 37 38 37 35 34 34 33 33 33 32 32 32 35 37 38 39 39 39 40 40 40 40 41 42 42 42 43 43 42 41 41 41 41 41 41 42 43 44 45 46 48 49 50 50 50 49 48 47 48 49 50 53 54 55 53 49 46 44
44 44 43 42 41 41 41 41 39 38 38 37 35 33 32 33 36 40 42 43 42 42 41 41 41 41 40 41 42 43 43 44 45 45 45 44 44 43 42 43 44 45 46 48 49 50 50 50 49 48 48 48 48 49 51 53 56 57 55 53 49 47 46
43 44 44 45 45 47 47 46 43 40 39 37 35 34 35 38 42 44 45 46 46 45 44 43 42 43 42 42 42 42 43 45 46 47 47 47 46 45 44 45 46 47 48 49 49 49 49 49 48 49 49 50 51 53 55 57 57 56 55 53 50 48 47
41 41 43 44 45 47 47 46 45 45 43 40 38 38 41 44 47 46 46 47 47 47 47 46 45 44 44 44 45 45 46 47 48 48 48 48 48 46 46 47 48 48 49 49 49 49 49 49 50 50 51 53 55 56 57 57 56 56 55 53 51 48 46
43 43 46 48 48 48 48 47 47 46 44 43 43 44 46 48 49 48 46 47 47 47 47 48 48 46 45 45 46 46 47 47 47 48 48 49 49 48 48 49 49 50 51 51 51 51 51 51 52 53 54 56 57 57 56 56 56 56 56 55 53 50 48
44 45 49 51 51 50 48 47 46 45 46 47 48 49 50 51 52 50 47 46 46 46 46 48 48 48 47 46 46 46 46 47 47 47 47 48 49 50 50 51 52 53 53 54 54 54 54 54 54 56 57 57 56 55 54 54 54 55 56 56 55 53 52
44 46 49 51 51 50 48 48 48 49 50 51 52 53 54 54 53 50 47 47 47 47 47 47 48 48 48 48 47 46 46 46 46 46 47 48 49 50 51 52 53 54 55 56 57 57 57 57 58 58 58 57 55 54 53 52 52 53 54 55 55 55 55
45 47 49 50 51 50 51 52 53 53 53 54 55 56 57 56 54 51 50 50 50 50 49 49 49 49 49 49 48 47 46 46 45 46 46 47 48 50 52 54 55 56 58 59 60 61 61 61 61 60 58 56 55 54 53 53 53 52 52 53 53 54 55
47 48 49 52 54 54 55 56 56 55 56 56 57 57 57 57 56 55 55 55 54 53 53 52 51 51 50 49 48 48 47 47 47 47 48 49 50 52 54 56 57 59 60 62 63 63 63 62 61 58 57 57 57 56 55 55 55 54 54 53 53 54 55
54 53 53 55 56 56 57 58 57 57 58 58 57 57 57 57 57 57 57 57 56 56 55 54 53 52 51 50 49 48 48 48 49 49 50 51 53 55 56 57 59 60 62 63 64 64 63 61 59 58 58 59 60 59 58 57 57 57 57 56 56 56 56
59 59 60 60 59 59 59 59 59 59 60 59 59 58 58 57 57 57 57 57 57 57 56 55 53 52 52 52 51 50 50 50 50 50 51 52 53 54 55 56 57 58 59 60 61 61 61 60 60 61 62 62 63 63 62 61 60 60 60 59 58 58 58
64 64 64 64 64 64 64 64 64 64 64 64 63 62 60 58 57 56 55 55 55 55 54 54 53 53 53 53 53 53 52 52 52 52 52 53 54 55 55 55 56 57 58 59 60 61 62 63 64 65 65 66 65 65 65 64 63 63 62 61 61 61 61
70 69 68 68 68 68 69 69 70 70 70 69 68 66 63 60 58 55 53 53 53 53 52 51 52 53 54 54 55 55 55 54 53 52 52 53 54 55 56 57 58 60 62 63 64 66 67 68 68 69 69 69 68 68 67 67 66 65 65 64 64 64 64
72 72 71 71 72 72 73 74 74 74 74 73 71 68 65 64 62 59 56 54 55 56 56 55 54 54 53 53 53 55 55 54 54 53 53 54 55 55 57 59 61 64 66 68 70 71 72 73 72 73 73 72 71 71 70 70 69 69 68 68 67 68 68
74 74 75 76 77 77 78 78 79 78 77 76 73 69 65 64 63 61 60 57 55 57 60 61 60 59 57 55 54 55 56 55 55 55 55 56 56 58 61 64 66 68 70 72 73 74 75 75 75 75 75 75 75 74 74 74 74 74 73 73 74 74 75
77 78 79 80 81 82 82 82 82 81 78 76 73 69 66 65 62 61 61 59 56 56 59 61 60 60 60 59 58 58 58 57 57 58 58 59 62 65 68 70 72 73 75 76 77 78 78 78 77 77 77 77 76 76 76 76 76 77 77 78 79 79 80
80 81 82 83 84 84 84 84 82 81 78 76 73 71 69 67 65 65 65 63 59 59 61 64 65 65 64 63 63 63 64 63 64 65 66 69 72 75 75 75 76 77 78 79 81 82 81 80 80 80 79 79 79 78 78 78 78 79 80 81 82 83 84
80 82 82 83 83 84 84 84 83 82 80 79 77 74 72 71 70 70 70 69 67 66 67 69 71 72 72 72 73 73 74 75 76 77 78 79 81 82 82 81 81 81 83 85 87 88 88 86 85 83 83 83 83 83 83 83 83 83 84 84 86 88 89
82 83 84 84 84 85 85 86 86 85 84 83 81 78 76 76 75 75 75 74 74 74 74 74 76 77 78 79 80 81 82 84 85 85 86 86 87 88 89 89 89 90 91 94 95 94 93 92 91 90 89 89 88 88 88 88 88 89 89 89 90 91 92
83 83 84 84 85 86 86 87 87 87 87 86 85 84 82 82 81 81 81 80 80 79 80 80 81 82 82 83 84 85 87 88 89 90 91 91 92 93 94 95 97 99 100 101 98 93 90 90 92 94 94 94 94 95 95 95 95 94 95 95 95 96 96
81 82 82 83 83 84 85 86 87 88 88 88 88 88 87 87 87 87 87 86 86 86 86 87 87 87 88 88 88 89 90 91 93 94 95 97 98 100 100 102 103 103 103 100 96 91 89 88 89 90 92 93 94 95 95 95 96 96 97 98 98 98 98
82 82 83 84 84 85 86 86 87 88 89 90 90 90 91 91 92 92 92 92 92 92 93 93 93 94 94 95 95 95 95 96 97 99 100 101 102 103 103 103 103 101 99 97 94 91 90 89 89 89 89 90 90 91 91 92 93 93 94 94 95 95 95

ECMWFFLT1_250_spd_072.txt.gz
Wind_Speed
40 39 39 39 38 37 37 37 38 38 37 36 35 33 32 30 29 28 27 26 25 24 23 23 24 24 23 23 22 22 23 24 25 25 26 27 29 29 28 27 26 25 24 23 22 20 19 17 15 14 14 15 16 19 23 28 31 34 35 35 35 36 37
37 36 37 38 38 38 37 37 36 34 33 31 30 29 28 28 27 26 25 25 25 24 23 23 24 24 24 25 25 26 27 28 28 28 28 29 29 30 30 28 27 26 25 25 24 23 21 20 17 17 16 16 17 18 19 21 23 24 26 27 28 29 31
42 40 40 40 39 37 35 33 31 30 30 30 28 27 26 25 24 24 24 24 24 24 24 24 25 26 27 28 29 30 31 31 30 30 29 30 30 30 30 30 29 27 27 27 27 25 23 22 20 20 20 20 19 20 20 20 20 21 22 23 24 25 26
38 38 38 38 38 36 32 30 30 30 30 30 28 26 25 24 22 22 22 23 24 25 25 26 27 29 30 31 33 33 33 32 31 31 30 31 31 31 31 31 31 29 29 29 29 27 25 23 23 23 23 23 22 22 22 21 21 22 22 23 24 25 26
35 35 34 33 33 32 31 31 31 30 30 30 29 27 26 25 24 23 22 23 24 25 27 28 29 31 33 34 34 34 33 32 32 32 32 32 32 32 33 32 32 31 31 31 31 29 27 25 25 25 25 25 25 25 25 24 24 24 24 24 25 27 28
40 37 34 31 29 30 30 31 30 30 29 29 29 29 28 27 26 25 25 24 25 26 27 28 29 31 32 33 33 33 32 32 33 33 33 33 33 34 34 33 33 33 33 33 32 31 29 28 27 27 27 28 28 28 28 27 27 26 26 26 27 29 30
40 38 34 31 30 32 33 33 33 32 31 30 30 29 29 28 28 27 26 26 27 27 27 28 29 30 31 31 32 32 32 33 33 34 34 34 34 34 34 34 33 34 34 34 34 33 31 30 29 29 29 30 31 31 31 31 30 28 28 28 29 31 32
41 39 37 35 34 35 37 37 36 35 33 31 30 30 30 29 29 28 27 27 28 28 28 28 29 30 30 31 31 32 33 33 34 34 34 34 34 34 34 34 34 35 35 35 35 34 33 32 31 31 31 31 32 34 34 34 33 32 31 31 32 32 34
40 40 40 39 37 37 38 39 38 36 35 33 33 32 31 30 28 27 27 27 27 28 28 28 28 29 30 31 32 33 34 34 35 35 35 35 35 35 35 35 35 36 36 37 37 36 35 34 33 33 33 34 34 36 37 37 37 36 35 34 34 34 36
34 35 38 39 40 40 40 39 37 36 35 33 32 31 31 31 30 29 29 28 28 27 27 27 27 28 29 30 32 33 35 36 36 36 36 36 36 36 36 36 36 37 38 38 39 38 37 37 36 36 36 36 36 37 39 40 40 39 39 37 36 37 39
31 33 35 38 40 40 39 38 36 34 33 32 32 33 33 33 33 33 32 31 29 28 26 26 26 27 28 30 31 33 34 35 36 36 36 36 36 36 36 37 37 38 39 39 40 40 40 40 39 39 38 38 37 38 40 41 41 42 41 40 40 40 42
32 34 34 36 37 37 37 36 35 35 36 36 36 36 36 35 34 33 32 30 29 27 26 25 25 26 27 28 30 31 33 34 35 36 37 38 38 38 38 38 39 39 39 39 40 41 42 41 40 40 40 39 39 39 41 41 42 42 42 42 42 43 45
33 36 37 38 39 40 39 39 39 39 39 38 36 35 34 34 33 31 30 29 27 26 23 21 21 21 23 24 26 28 31 33 34 35 37 38 39 40 41 41 41 41 41 40 41 42 42 41 41 41 41 40 40 40 41 42 42 43 43 44 45 47 49
33 35 37 38 40 43 44 43 43 43 41 39 36 34 32 31 30 29 27 25 23 21 18 17 17 19 20 22 24 26 28 30 32 34 35 36 37 38 40 41 41 41 41 41 41 42 42 41 41 41 41 41 41 41 42 42 43 44 45 46 48 50 50
36 36 35 35 38 41 42 42 43 43 42 41 40 37 34 32 28 25 24 23 23 21 18 18 20 22 23 25 26 26 28 29 31 32 34 35 35 36 38 38 39 39 39 40 40 41 41 41 41 41 41 42 42 43 44 44 45 46 48 50 51 50 49
39 39 39 38 38 38 39 39 40 41 41 41 42 41 38 34 30 27 28 28 27 25 24 24 25 27 28 29 30 29 29 30 30 32 34 35 36 37 37 37 38 38 39 40 41 41 41 41 42 42 42 43 44 45 46 47 48 50 52 52 51 49 48
40 41 42 42 42 42 41 39 39 40 40 40 41 40 40 38 36 36 35 32 30 30 31 31 31 32 33 34 34 33 32 31 31 32 34 36 37 38 38 38 39 40 41 42 43 44 43 43 43 43 44 45 47 48 50 51 52 52 52 51 49 49 48
43 42 43 43 45 46 45 43 42 42 42 41 40 39 39 40 40 41 40 37 37 39 38 37 37 37 38 38 37 36 34 33 32 33 34 36 38 40 41 41 42 43 43 44 45 46 46 45 45 45 46 48 50 51 53 53 54 53 51 50 50 50 50
45 45 43 42 43 45 46 45 45 46 46 46 46 45 44 44 45 45 44 43 43 41 40 41 41 42 42 41 39 38 37 36 35 35 36 38 39 41 42 44 44 44 45 46 47 47 47 47 47 48 49 51 52 53 54 54 54 53 52 52 52 52 52
46 48 47 44 41 43 46 47 47 49 50 51 51 50 48 47 46 45 45 45 43 42 43 44 45 45 45 44 42 41 40 40 39 38 38 39 40 42 43 44 44 44 45 46 48 49 49 49 49 50 51 52 53 53 54 54 54 54 53 53 53 53 53
46 50 52 51 47 46 48 48 48 47 47 48 47 47 46 44 43 43 44 45 44 45 46 46 46 47 47 46 46 45 44 44 44 44 43 42 41 42 43 44 45 45 45 46 48 50 51 52 52 52 53 53 54 54 54 54 54 55 55 55 54 53 51
47 49 53 55 56 56 55 53 50 48 47 46 46 45 45 45 45 46 46 46 46 48 48 48 48 48 48 49 50 50 50 50 51 50 48 46 43 42 42 43 44 45 46 46 47 49 50 52 52 53 54 55 55 55 55 56 56 57 57 57 55 53 50
47 47 49 52 57 60 61 60 58 56 56 55 53 52 50 49 49 49 49 49 50 50 50 50 51 51 52 53 54 55 56 56 56 55 52 48 45 43 42 43 44 45 46 47 47 48 49 51 53 54 56 57 58 58 58 59 60 61 60 59 57 54 52
46 45 46 49 53 56 58 60 59 58 57 56 55 53 52 51 51 52 52 53 53 53 54 54 55 56 57 57 57 58 59 59 59 57 54 50 47 45 44 43 43 44 45 46 47 47 47 49 51 54 56 58 60 61 61 61 61 61 59 58 56 55 55
50 48 46 46 49 51 52 53 53 52 51 50 49 49 51 52 54 54 55 56 56 56 57 58 59 59 59 59 59 60 60 60 59 57 54 51 48 46 45 44 43 43 43 44 45 46 47 48 50 52 55 57 59 59 59 58 57 56 56 56 56 58 59
54 53 50 48 48 50 51 50 50 50 50 50 50 52 54 56 57 58 58 58 59 59 60 60 60 59 59 59 59 59 59 59 58 56 54 51 49 47 46 46 45 45 45 45 46 47 48 50 51 53 54 55 55 55 55 54 54 55 56 58 60 61 63
55 55 55 53 53 53 54 54 54 55 55 56 56 57 59 60 60 60 61 61 61 61 61 60 59 58 58 58 58 58 58 58 57 55 53 52 51 50 49 48 48 47 47 48 48 50 51 53 53 54 54 55 55 55 56 56 58 60 62 64 65 66 67
58 57 57 58 58 59 60 61 61 62 62 62 62 63 64 64 64 64 64 64 65 64 63 63 62 61 59 58 58 57 57 57 57 56 55 54 54 53 52 51 50 50 50 50 51 52 53 54 55 55 55 56 57 58 60 63 65 67 69 70 70 70 70
63 62 62 62 62 63 64 65 66 67 68 68 68 68 68 68 68 69 69 69 69 68 68 67 66 64 61 60 60 59 59 58 58 57 57 57 57 56 54 53 53 53 54 54 54 54 55 55 55 55 56 57 58 59 63 68 72 73 74 74 74 74 73
66 66 66 66 66 66 66 67 67 68 69 69 70 70 71 71 72 73 73 73 72 71 71 69 67 65 63 62 61 61 61 61 61 60 60 59 58 57 56 55 56 57 57 58 57 57 56 55 55 57 58 60 62 65 69 73 76 77 78 78 78 77 76
67 67 67 68 68 68 69 69 69 69 69 70 70 71 73 74 74 75 75 75 74 73 72 71 69 67 65 64 63 63 63 63 63 63 62 62 61 60 60 60 61 62 63 63 63 62 61 61 62 63 66 68 71 74 77 79 80 81 82 83 82 81 81
68 69 69 70 70 71 71 72 72 72 72 73 73 74 75 76 76 76 76 76 75 74 73 73 73 71 70 70 68 67 66 66 66 66 66 65 65 66 66 67 68 69 70 71 71 71 71 71 73 75 77 79 81 82 83 85 86 86 87 87 87 87 87
67 69 71 72 73 74 74 74 75 75 75 75 75 75 75 76 76 76 76 76 75 75 75 76 77 76 76 75 74 73 71 70 70 72 72 71 70 71 73 74 75 76 77 77 78 79 79 80 81 83 84 85 86 86 87 89 90 91 92 92 92 92 92
69 71 73 74 75 75 75 76 76 76 76 76 76 75 75 76 77 78 78 78 78 78 78 78 79 80 80 79 79 78 76 76 77 78 77 77 77 79 81 81 82 83 84 84 84 85 87 88 89 90 91 91 92 93 93 93 93 93 93 93 92 91 89
73 74 75 77 77 77 77 77 77 77 77 77 77 77 77 78 79 81 82 82 82 82 82 82 82 82 82 82 82 82 81 81 83 83 82 82 84 86 87 88 89 89 89 89 90 91 92 93 94 96 96 96 96 96 95 94 93 91 90 89 88 86 85
74 74 75 76 78 79 79 79 79 80 80 80 81 81 81 82 83 84 85 86 87 87 87 86 85 85 84 84 84 84 84 85 86 86 85 86 88 89 91 93 94 93 93 93 93 94 95 96 97 97 97 97 96 95 94 93 92 90 88 87 86 85 84
73 72 72 73 75 77 79 80 81 82 83 84 84 85 85 86 86 87 88 89 90 90 90 89 88 87 87 87 87 88 88 88 89 89 89 89 90 92 95 97 98 97 96 96 96 97 97 97 97 96 95 95 95 95 94 94 92 91 90 88 87 87 87

ECMWFFLT1_250_spd_075.txt.gz
Wind_Speed
41 40 38 38 37 36 33 30 27 25 24 24 25 25 25 26 26 26 24 24 24 24 24 24 25 25 25 24 24 24 24 25 24 23 23 23 23 23 24 25 25 24 24 24 25 24 23 22 22 21 20 19 18 17 17 18 20 23 28 33 37 39 40
40 38 37 36 35 32 29 25 23 23 25 26 27 27 26 26 25 23 22 22 23 23 24 24 24 25 25 25 25 24 24 25 25 26 26 26 26 27 27 27 26 26 26 26 26 25 24 23 23 23 22 21 20 19 19 18 19 20 22 26 30 33 35
38 37 36 35 34 31 30 29 28 29 29 29 28 27 26 24 24 23 22 21 22 22 22 23 23 24 24 25 25 25 25 26 27 28 29 29 30 30 29 28 27 27 27 27 27 27 26 25 25 25 25 24 23 22 21 20 20 21 22 23 25 27 27
38 36 35 34 33 31 31 31 31 31 30 30 29 27 25 24 24 24 23 22 22 21 21 21 22 22 22 23 24 26 27 29 29 30 31 32 32 32 30 29 28 28 28 28 29 28 27 27 27 28 27 26 25 24 23 22 22 23 24 25 25 26 26
34 33 33 32 31 30 29 28 28 27 28 29 29 27 26 25 26 26 26 24 24 23 23 23 23 23 22 23 24 26 28 30 31 32 32 33 33 31 30 29 29 28 29 29 30 30 29 29 29 29 29 29 28 26 25 24 24 25 27 28 28 28 28
32 31 30 30 30 30 29 28 27 28 28 27 27 27 26 27 27 27 27 27 27 26 26 26 26 26 25 25 25 26 28 30 32 32 32 32 32 31 30 30 29 29 30 31 31 31 31 31 31 31 31 31 30 29 27 27 27 27 29 30 31 31 31
38 35 34 33 32 32 32 31 31 30 29 27 27 27 27 28 28 27 28 28 28 28 27 27 27 28 28 28 28 28 29 30 31 32 31 31 31 31 31 31 31 31 31 32 32 32 32 32 32 33 33 33 32 31 30 29 29 29 30 32 33 34 34
42 39 38 37 36 36 36 36 34 31 30 29 29 30 30 30 31 30 30 29 28 29 29 29 30 30 30 29 29 30 30 31 32 32 31 31 31 31 31 32 32 33 33 33 33 33 33 33 34 34 35 35 34 33 32 32 32 32 32 33 34 35 36
40 38 38 38 38 38 38 38 38 35 33 33 33 34 33 33 33 33 32 31 31 31 31 30 30 30 29 30 31 31 32 32 31 31 31 31 32 32 32 33 33 34 34 34 34 34 34 35 35 35 36 37 37 36 34 34 34 34 35 35 36 37 37
36 35 35 35 36 36 36 36 35 35 34 34 35 35 35 34 33 32 31 30 29 29 29 29 29 30 30 31 32 31 31 30 30 30 31 32 32 33 34 34 34 35 35 35 35 36 36 36 37 37 38 39 39 39 38 37 37 37 37 37 38 38 38
34 33 32 32 33 32 32 31 31 32 32 33 34 34 33 32 31 29 28 27 27 27 28 29 29 29 31 31 31 30 28 27 27 28 29 29 30 31 31 31 32 33 34 35 36 37 37 37 38 38 39 40 41 41 42 41 39 38 38 39 39 40 40
30 29 29 30 30 29 29 28 29 30 31 33 34 34 32 31 29 28 26 25 26 27 27 28 28 28 29 29 28 27 25 24 23 23 23 23 24 25 25 26 27 29 31 33 36 37 39 39 39 40 40 41 42 43 44 43 41 40 40 40 41 42 42
26 26 26 27 28 28 29 29 29 30 31 33 34 34 32 31 30 29 27 27 26 26 27 27 28 28 29 29 28 26 23 20 19 18 17 18 19 20 22 23 24 26 28 31 34 36 38 39 41 42 42 43 44 44 44 44 42 42 42 42 43 43 44
26 26 27 29 30 30 31 31 31 32 33 35 35 35 34 34 34 34 33 32 30 29 28 28 29 31 31 30 29 26 22 18 17 16 16 16 17 17 18 20 21 23 26 29 32 34 36 37 39 40 41 42 44 44 45 45 44 44 44 44 44 44 45
29 29 30 31 31 32 33 34 34 35 37 38 39 39 39 39 39 38 38 36 34 31 29 28 29 29 29 30 29 27 24 21 20 19 19 19 19 18 19 19 21 23 25 27 29 32 34 36 38 39 40 40 42 43 44 45 45 45 45 45 44 45 45
34 34 33 32 33 33 34 35 37 38 39 40 40 41 41 40 39 38 37 37 35 32 29 27 27 27 28 30 31 31 28 27 27 27 26 25 24 23 23 23 24 25 27 29 30 32 33 36 38 40 40 40 41 43 44 45 45 45 45 45 45 46 46
37 37 36 35 36 35 36 37 38 40 40 40 40 39 38 38 37 36 36 37 37 35 32 31 32 33 33 32 32 34 34 35 37 36 34 31 30 29 28 29 29 30 31 32 33 34 35 36 38 41 42 43 43 44 45 46 46 46 46 46 47 48 48
37 38 39 39 39 39 39 40 41 42 42 42 40 38 37 37 37 37 36 36 35 35 34 34 36 38 37 36 37 40 41 42 42 42 39 37 36 34 34 34 34 35 36 36 36 37 37 38 39 41 44 45 45 46 46 47 48 49 49 49 49 50 51
39 39 40 40 41 42 43 43 44 44 45 45 44 43 42 41 40 39 39 38 37 36 36 37 39 41 42 42 43 43 43 43 43 43 43 42 41 40 39 39 38 39 39 39 39 40 40 39 40 42 44 46 47 47 47 48 49 50 51 51 52 52 53
39 40 41 41 42 43 44 45 46 46 46 46 46 46 46 45 44 44 43 43 42 42 42 44 45 46 47 46 46 45 44 44 45 46 46 46 45 44 43 42 42 41 42 42 42 41 40 39 39 41 44 46 48 48 49 49 50 51 52 52 53 54 55
34 37 40 42 43 43 44 45 46 46 47 47 47 47 47 47 47 47 46 46 46 47 47 47 48 48 48 48 48 47 46 45 46 47 48 49 48 47 46 45 44 45 45 45 44 43 41 39 38 39 42 45 47 49 50 50 51 52 53 53 54 55 55
34 36 39 41 44 45 46 46 46 47 47 47 47 47 47 47 47 47 46 46 47 47 47 47 48 49 49 49 49 48 47 48 48 49 50 50 49 49 48 48 48 49 49 48 46 45 43 41 39 39 40 42 45 47 49 50 51 52 53 54 54 54 55
38 39 41 43 44 46 48 49 51 51 50 49 48 47 47 46 46 47 47 48 48 49 49 50 51 51 51 50 50 49 50 51 52 52 52 52 52 52 52 52 52 52 52 51 49 47 45 42 41 40 40 41 43 45 47 49 50 51 52 53 54 54 54
37 39 42 44 44 45 48 51 54 55 54 53 52 51 51 51 51 52 53 53 54 54 54 55 55 55 54 53 53 53 54 54 55 55 55 55 55 56 56 56 55 55 54 53 51 49 47 45 43 42 42 42 43 44 45 47 48 50 51 52 53 54 54
41 41 42 43 42 43 46 49 52 56 57 55 55 54 55 56 56 57 58 58 58 58 58 59 59 59 58 57 57 56 56 57 56 57 57 57 58 58 58 57 57 56 55 53 52 51 49 47 45 45 44 44 44 45 45 46 47 49 50 51 51 52 52
48 47 45 44 43 43 44 47 51 55 57 57 57 57 57 58 58 59 60 60 59 59 59 60 60 60 59 58 58 57 58 58 58 58 59 59 59 59 59 59 58 56 55 54 53 52 51 49 48 48 48 47 47 47 47 48 48 49 51 52 52 51 51
53 51 50 48 46 45 46 49 51 52 53 54 55 54 54 54 54 54 54 54 54 54 55 55 56 57 57 57 58 58 59 60 60 61 62 62 62 61 61 60 59 57 55 54 54 54 54 53 52 51 51 50 50 50 51 51 52 52 53 54 55 55 55
57 55 54 52 51 49 49 50 51 53 53 54 54 53 52 52 51 51 51 51 52 53 54 54 56 57 59 59 60 62 63 63 64 64 64 63 63 62 61 60 58 57 56 56 56 56 56 56 56 55 54 53 53 53 54 54 55 55 56 57 58 59 59
61 60 59 57 56 55 53 52 52 53 54 55 56 56 56 56 56 56 57 57 57 58 58 59 60 62 63 64 65 67 67 66 65 64 63 63 62 61 60 59 58 58 58 58 58 59 59 59 59 58 57 57 57 57 57 58 58 59 60 60 61 62 62
64 64 63 62 62 61 60 58 56 56 56 57 58 59 60 60 61 62 62 63 63 63 64 64 66 67 67 68 68 68 67 66 65 64 63 63 62 62 61 60 60 61 61 60 61 61 61 62 62 62 61 61 62 62 63 63 63 63 63 64 65 66 66
63 64 64 65 65 65 64 63 62 60 60 60 61 62 63 63 64 64 64 65 65 66 67 68 68 69 69 69 69 68 67 67 66 65 65 64 64 63 63 63 64 63 63 62 63 64 65 65 65 65 66 66 67 68 69 69 68 68 70 71 71 72 73
66 66 66 65 65 65 65 65 64 63 63 62 63 64 65 65 66 66 67 67 68 68 69 69 70 70 70 70 70 70 69 68 68 68 67 66 66 66 66 66 67 66 66 65 66 67 68 69 69 70 70 71 72 73 73 73 73 74 75 76 77 79 80
69 67 66 65 64 64 64 65 65 65 65 65 65 65 66 67 68 69 70 70 71 71 71 72 72 72 73 72 72 72 71 71 70 70 70 69 69 69 70 70 70 69 69 69 70 70 71 72 72 73 73 73 73 74 74 74 75 75 77 79 81 83 84
69 68 67 66 65 65 65 66 66 66 66 67 67 68 68 69 70 71 71 72 73 75 75 75 76 76 76 75 75 75 75 75 74 73 72 72 72 72 73 74 73 73 73 74 73 72 71 72 74 75 75 75 75 76 76 77 77 78 80 82 84 85 86
71 71 71 70 70 69 69 69 69 69 69 70 70 71 71 72 73 74 74 75 76 78 78 79 80 80 79 78 78 78 78 79 78 78 77 76 76 76 76 77 77 78 78 78 76 74 75 77 79 79 79 79 80 81 81 82 82 83 85 86 87 87 87
74 74 74 74 74 74 74 73 73 73 73 73 73 74 74 75 76 77 78 78 79 80 81 82 83 83 83 82 81 81 82 82 82 82 82 82 82 81 81 81 82 83 82 81 81 81 82 84 84 83 82 82 83 84 85 86 87 88 89 90 90 90 89
73 73 73 73 73 73 74 74 74 75 76 76 77 77 78 78 79 79 79 79 80 80 81 82 83 84 85 85 84 85 85 85 86 86 87 87 87 87 86 85 84 85 85 84 84 85 86 87 87 86 85 84 85 86 88 89 90 91 92 92 92 92 91

ECMWFFLT1_250_spd_081.txt.gz
Wind_Speed
54 52 50 49 48 47 46 47 50 54 56 56 56 55 54 53 50 49 48 46 44 42 41 39 36 34 32 30 28 27 27 28 28 29 29 30 30 31 31 32 33 34 34 34 33 32 31 31 31 32 31 31 31 31 31 31 32 33 34 36 36 36 35
45 43 43 43 43 44 45 46 48 49 47 45 46 47 46 46 46 44 43 42 40 38 36 33 31 30 28 27 26 26 26 27 27 27 27 27 28 29 30 31 33 34 34 35 35 35 35 34 33 33 33 33 33 33 33 33 34 35 35 36 37 38 37
41 38 36 35 37 41 42 40 37 35 36 39 41 42 42 42 41 40 39 37 35 33 30 27 27 27 25 25 25 24 24 24 24 25 26 26 26 27 29 30 31 32 33 34 35 35 35 35 35 35 35 36 37 36 36 35 35 36 35 35 37 38 38
37 31 28 29 33 36 36 33 32 34 37 40 40 39 39 38 38 37 35 33 31 29 27 26 26 26 25 24 24 23 23 23 23 24 25 24 25 27 28 30 31 31 32 33 34 35 36 37 37 38 39 40 40 38 37 37 37 36 36 36 36 37 39
37 28 25 30 33 34 34 33 36 38 40 39 37 36 36 36 36 33 32 31 30 29 28 28 27 26 25 23 22 22 22 22 21 22 22 22 23 25 27 28 30 31 31 32 33 35 36 37 38 40 41 41 39 38 37 37 37 36 36 36 36 37 38
40 32 27 32 35 33 33 34 36 36 36 36 35 35 34 33 32 30 29 29 29 30 30 28 27 25 24 23 22 22 23 23 22 22 22 22 23 24 26 27 29 31 32 33 34 36 37 38 39 40 40 40 39 38 38 37 37 37 37 37 37 37 38
39 36 30 30 31 29 29 31 32 33 33 33 33 32 31 29 27 27 26 27 28 28 27 25 24 24 23 23 23 24 24 24 25 25 25 25 24 25 26 28 30 32 34 35 36 37 38 39 39 40 40 40 39 39 38 38 37 37 37 36 36 37 38
36 36 31 25 25 26 28 29 28 31 33 33 32 31 30 28 27 27 25 25 26 25 24 23 22 23 24 24 25 25 25 26 26 27 27 27 27 27 29 31 33 34 36 37 37 37 37 38 39 39 39 39 39 39 38 38 38 37 37 36 36 35 36
32 31 26 22 25 29 32 33 32 34 37 38 36 34 34 33 31 29 27 27 27 26 25 24 24 25 25 25 26 27 27 28 28 28 29 30 30 31 32 32 33 36 37 38 38 38 38 39 39 39 39 39 39 39 38 39 39 39 39 38 38 37 37
33 31 27 29 37 40 41 41 40 39 40 42 40 36 35 33 31 30 29 29 30 29 28 26 26 27 26 27 28 29 30 30 30 30 31 31 32 32 33 33 35 37 39 39 39 39 39 39 38 39 39 39 39 39 39 39 39 39 39 40 40 41 41
37 37 37 40 45 46 47 46 43 42 42 42 40 36 34 32 30 30 30 30 31 30 28 27 27 28 28 29 30 31 32 32 32 32 33 32 32 32 33 34 36 38 40 40 40 39 39 38 38 38 38 39 38 37 36 35 35 34 35 36 38 40 41
41 42 44 46 47 47 48 48 46 45 44 42 39 36 34 32 30 29 29 30 31 32 31 31 31 32 32 32 32 32 33 33 33 33 33 31 31 32 33 35 37 38 39 38 38 37 37 36 37 37 36 35 33 31 30 29 29 29 30 31 33 36 38
45 45 47 49 49 49 48 47 47 47 47 45 41 38 35 32 30 28 27 28 31 33 34 35 36 35 34 33 32 32 32 32 32 31 30 30 32 33 35 35 35 35 35 35 35 34 34 34 33 32 31 29 27 27 27 27 27 28 28 29 30 32 34
45 45 46 48 49 49 48 48 48 48 47 46 44 40 35 32 29 27 26 26 28 31 33 35 35 34 32 32 31 30 30 30 29 29 31 33 34 35 35 34 32 31 31 32 32 30 29 28 27 26 26 26 27 29 30 30 31 32 33 33 32 32 33
45 44 44 44 46 47 47 47 47 46 45 44 42 38 35 32 29 27 25 25 27 28 30 31 32 31 31 31 31 30 30 30 31 32 34 34 33 32 32 30 28 28 29 30 29 26 24 25 27 29 31 33 35 36 38 39 39 39 39 39 38 37 35
40 42 42 43 45 45 46 46 46 44 42 40 38 35 33 31 29 28 27 26 27 27 28 29 30 31 31 31 32 32 33 33 34 35 34 32 30 28 28 27 25 26 28 29 29 28 29 31 35 37 38 39 40 40 42 43 44 43 42 41 41 40 38
34 39 41 43 43 43 43 44 43 43 41 38 36 34 33 31 29 28 27 27 27 28 28 29 30 31 32 33 34 35 35 35 35 34 33 32 30 28 27 27 27 28 29 31 32 34 36 39 40 41 41 41 42 42 43 44 44 44 43 42 41 40 40
32 36 38 38 39 38 39 40 40 40 40 40 38 36 33 31 30 30 29 29 29 30 30 31 31 32 33 35 36 36 36 36 35 34 33 32 32 30 29 31 32 34 35 36 37 39 39 40 41 42 43 44 44 44 45 45 44 44 44 43 42 41 41
28 31 34 34 35 35 36 37 37 37 36 36 37 37 35 33 31 31 31 31 31 31 32 32 32 33 34 35 37 37 37 36 35 34 34 34 34 34 34 34 36 37 39 40 42 43 43 42 43 44 46 46 45 45 46 46 46 46 44 44 43 43 44
29 30 31 30 31 31 33 35 37 38 37 35 34 32 32 32 31 31 33 34 34 33 33 33 34 35 35 36 37 37 36 36 35 35 35 35 36 37 37 38 39 41 42 44 46 46 46 46 47 47 47 47 46 46 47 48 48 47 46 46 46 46 47
33 34 33 31 30 30 31 32 35 38 39 39 38 36 34 33 32 32 33 35 35 33 33 34 35 36 36 36 36 35 35 35 35 36 36 37 38 39 40 41 42 44 45 46 48 48 49 49 49 49 48 48 47 47 48 49 48 48 49 49 49 50 49
36 36 36 34 33 32 33 34 34 35 37 38 38 38 38 38 38 37 37 37 37 36 35 36 36 36 37 37 36 36 35 35 36 37 38 38 40 41 43 44 45 46 48 49 50 50 51 51 50 50 49 49 48 49 49 49 50 51 52 52 52 52 51
36 36 35 34 34 34 35 36 36 38 39 39 38 37 37 37 38 38 39 39 39 38 38 38 38 39 39 39 38 38 38 38 38 39 39 40 42 43 44 46 48 49 49 50 51 51 52 52 51 51 50 50 50 50 50 51 53 54 54 54 55 54 52
37 37 37 36 36 36 37 38 39 39 39 40 40 39 38 38 38 38 39 39 39 40 40 41 41 41 41 41 41 41 41 42 42 42 43 43 44 45 46 48 50 51 52 53 53 53 53 52 50 50 50 51 51 52 53 54 55 56 57 59 58 56 55
39 40 40 41 40 40 40 40 39 38 38 38 39 38 38 39 40 40 41 42 42 42 43 44 45 44 44 43 44 44 45 45 45 45 46 46 47 48 49 49 50 51 51 50 50 50 49 49 49 50 51 52 53 54 55 57 59 61 63 62 60 58 57
42 43 43 44 43 42 42 41 40 39 38 39 41 40 40 40 41 42 43 45 45 45 46 46 46 45 45 45 46 47 48 48 48 49 50 50 50 50 49 47 45 44 44 46 47 48 49 50 51 52 54 54 55 56 58 60 63 65 65 64 61 59 58
44 44 45 46 45 45 46 45 44 43 42 43 44 44 44 44 45 46 47 48 48 47 48 48 48 48 48 48 49 50 50 51 50 50 50 49 48 48 46 43 42 41 44 49 51 51 53 53 54 55 56 56 57 59 62 65 68 68 66 64 62 59 57
46 44 45 46 46 46 47 47 47 47 47 47 47 48 48 48 48 49 49 49 49 48 48 48 49 49 49 49 50 50 50 50 49 47 46 46 46 46 45 44 43 43 45 49 53 55 57 58 57 57 57 58 61 65 68 70 70 68 65 63 61 59 57
51 49 49 48 48 48 48 48 47 47 47 47 48 49 49 49 49 49 49 49 49 48 48 48 49 50 50 50 50 49 49 49 47 46 46 46 46 47 47 46 46 46 46 49 53 56 56 56 58 60 62 66 69 71 72 71 69 67 64 62 61 60 59
55 55 55 54 53 52 51 51 50 49 48 48 48 49 49 48 47 46 48 49 50 50 51 51 52 52 52 52 51 49 49 48 47 48 49 50 51 52 53 53 53 53 53 53 54 56 58 62 66 69 72 73 73 71 70 68 66 64 64 63 62 62 64
60 60 59 58 56 55 54 53 53 53 52 52 52 53 53 53 52 50 51 51 51 52 53 53 52 52 52 52 52 51 50 50 51 52 53 54 55 56 57 57 57 57 58 59 60 62 66 69 71 72 73 72 70 67 65 64 64 64 63 63 64 66 68
64 63 63 63 62 61 59 58 58 57 57 58 58 58 58 59 59 59 58 56 55 56 56 56 55 55 55 55 55 55 55 55 56 56 57 57 58 58 59 60 61 59 59 61 62 64 66 67 68 69 69 68 67 65 64 65 68 68 68 69 72 73 74
68 68 68 68 67 67 66 65 64 62 61 61 62 61 61 61 62 63 64 63 64 64 64 64 64 63 63 64 64 64 65 65 64 64 64 65 65 65 66 68 68 67 66 65 64 64 64 65 65 66 67 68 70 72 72 74 76 78 78 79 80 81 81
72 73 73 73 72 72 71 70 70 69 68 68 68 68 67 66 67 69 70 71 72 72 73 73 74 73 73 74 75 75 75 75 74 73 72 72 73 73 73 73 74 74 74 73 71 69 69 70 71 73 75 77 79 81 82 82 83 83 83 83 82 82 83
74 75 76 76 76 76 76 76 76 75 75 75 75 74 74 74 75 76 77 77 78 78 78 79 80 80 80 80 80 80 80 81 80 79 78 78 77 77 76 76 77 77 78 79 79 80 81 82 83 84 85 85 85 86 86 87 87 87 86 85 84 83 83
75 76 77 78 79 79 80 80 80 80 80 80 80 80 80 80 81 81 82 82 83 83 84 84 84 84 83 83 82 81 81 81 81 81 80 79 78 78 78 78 78 79 80 81 83 84 85 86 87 86 87 87 88 88 88 88 89 89 88 87 87 86 86
74 75 76 78 79 80 80 81 81 82 82 82 83 83 83 83 84 85 85 86 86 86 87 86 86 85 84 84 83 83 83 82 82 82 81 81 80 79 78 78 78 80 81 82 83 85 86 87 88 88 88 89 89 89 89 88 89 89 89 89 89 89 89

ECMWFFLT1_250_spd_084.txt.gz
Wind_Speed
66 68 70 70 69 67 66 63 63 63 64 63 59 56 55 52 51 50 50 51 50 50 52 54 58 59 57 53 50 47 46 43 41 39 37 36 37 37 38 38 38 39 39 40 40 39 38 37 37 37 37 36 34 35 37 40 40 39 37 35 35 36 36
64 65 66 67 68 68 67 64 63 61 60 59 57 54 52 50 47 46 47 49 50 49 50 50 49 47 46 45 43 42 41 39 38 37 35 35 36 37 38 39 38 39 40 40 40 40 40 41 40 39 39 38 38 37 38 39 39 39 38 37 37 38 38
61 63 65 66 66 66 66 63 60 56 53 54 50 42 39 41 42 44 46 46 45 44 42 41 40 39 39 39 38 37 36 35 34 33 33 34 35 37 38 38 38 37 38 38 38 38 38 39 41 42 42 42 41 42 42 40 39 39 40 40 41 41 41
56 59 63 64 64 62 62 60 56 53 50 47 44 39 36 38 41 42 41 39 39 38 36 35 36 36 36 35 35 34 32 31 31 32 34 34 34 35 35 36 36 35 36 36 36 36 36 36 37 39 40 41 41 42 42 41 41 41 42 43 43 43 42
47 53 56 57 59 59 58 54 49 47 44 40 40 43 43 41 41 39 37 36 36 35 33 32 32 33 32 32 32 31 30 30 32 33 34 34 33 33 34 34 34 34 34 33 34 34 35 35 36 37 38 39 40 41 42 42 42 43 44 44 44 44 43
39 46 49 50 51 51 50 46 43 42 41 40 41 44 44 42 40 38 38 37 35 32 30 29 29 30 30 30 30 30 30 31 33 34 33 33 32 33 33 32 32 32 31 31 32 33 33 35 36 37 37 37 39 40 41 42 43 44 45 45 45 44 44
41 43 44 46 44 43 43 40 39 40 41 42 43 44 44 42 41 39 38 35 31 28 26 26 26 26 27 28 30 31 32 33 34 34 33 32 32 32 32 31 31 31 30 30 31 31 32 34 36 37 38 38 39 40 42 42 43 44 44 44 44 43 43
45 44 43 44 42 41 42 39 36 40 44 45 45 45 44 42 40 37 33 29 26 24 24 24 25 25 26 28 29 32 33 33 33 34 33 33 33 33 33 33 33 33 32 32 32 32 33 35 37 38 39 39 39 40 41 41 41 41 41 42 42 41 41
47 45 45 45 43 42 43 42 39 40 43 45 44 43 41 39 36 32 28 27 26 26 27 28 29 28 29 29 30 31 32 32 33 34 34 34 34 35 35 35 35 35 33 33 34 36 37 38 39 39 40 40 40 40 40 41 40 40 40 40 40 39 39
47 47 47 47 45 43 44 45 44 43 43 42 40 39 37 34 32 29 28 28 29 29 30 30 30 31 31 32 32 32 32 33 34 35 35 35 36 36 36 36 36 36 35 35 37 38 38 39 39 41 42 42 41 40 39 39 38 37 37 37 37 36 35
50 49 50 49 46 44 44 45 46 46 45 43 41 40 38 34 32 31 30 31 31 31 30 30 30 31 32 33 34 34 35 35 36 37 37 37 37 38 38 37 38 38 38 38 39 39 38 39 40 41 41 39 37 35 35 36 35 33 32 32 31 30 30
50 50 51 50 48 46 44 44 46 48 48 45 43 42 40 37 36 34 33 33 32 31 30 29 30 31 33 34 36 36 37 37 38 38 38 38 38 39 39 39 39 39 40 39 39 39 39 40 40 39 37 34 31 30 30 31 30 27 27 27 27 28 29
49 47 47 48 47 46 44 43 46 48 47 44 43 44 44 42 41 39 37 36 34 32 31 31 31 32 33 35 37 38 38 38 39 39 39 39 39 39 39 39 40 40 40 39 39 40 41 40 38 35 32 29 26 24 23 24 25 25 26 28 30 32 34
48 45 44 45 46 47 45 45 48 48 46 44 45 46 46 45 44 41 39 37 35 33 32 32 32 33 33 34 37 39 39 40 41 41 40 40 39 38 38 39 39 38 38 38 39 40 40 37 33 30 28 26 23 20 22 25 27 28 29 32 34 36 37
46 44 44 45 48 49 48 48 50 50 48 48 49 49 49 48 47 44 40 37 35 33 32 33 33 33 32 33 35 38 40 42 43 43 41 40 39 38 37 37 37 37 38 39 38 37 35 32 29 26 27 26 24 24 28 32 33 33 33 35 36 37 38
43 43 45 46 47 49 51 50 50 51 51 52 52 52 51 50 48 45 41 38 36 34 33 34 34 34 33 34 34 36 38 41 43 42 41 39 39 37 37 37 38 39 39 38 35 33 31 29 26 26 27 28 29 31 35 37 37 37 37 38 39 40 40
42 43 45 46 47 48 50 50 50 51 51 51 51 51 50 49 47 45 42 39 37 36 36 35 35 35 34 34 34 34 35 37 39 40 40 39 38 38 38 39 40 39 37 35 32 31 30 29 30 30 31 33 34 36 38 39 39 39 39 41 42 42 41
40 42 44 45 47 47 48 48 48 48 48 48 49 49 48 47 44 42 40 39 37 37 36 36 35 34 33 33 32 32 33 35 37 38 39 38 38 39 40 41 40 38 36 33 31 30 30 32 34 35 36 38 39 39 39 40 41 41 41 42 43 44 43
36 38 39 40 43 44 44 44 43 42 43 44 45 45 45 42 40 38 37 35 35 35 35 35 35 34 32 32 32 32 33 34 35 36 37 38 39 40 41 41 40 38 36 34 33 33 34 35 37 38 40 41 42 42 41 42 43 43 44 44 45 45 45
35 34 34 35 38 39 39 38 38 38 38 38 39 38 37 36 35 34 33 33 33 33 33 33 33 33 32 31 32 33 34 35 36 37 38 39 40 41 42 41 40 39 37 37 36 36 37 38 39 41 42 43 45 45 45 45 46 47 46 46 47 47 48
37 36 34 33 35 37 38 38 37 36 35 34 33 33 33 33 32 30 30 30 31 31 32 32 33 33 33 32 32 33 35 36 37 39 40 40 41 42 42 41 40 39 39 39 40 40 40 41 42 43 44 45 47 48 49 49 49 49 50 49 50 50 48
40 39 37 35 35 37 38 39 39 38 35 33 31 31 32 33 33 32 31 30 30 30 30 31 32 33 33 33 34 35 36 37 38 39 39 40 41 41 41 41 40 40 40 41 42 43 43 44 45 46 47 49 50 51 52 52 52 52 53 52 51 49 47
43 42 41 39 39 39 39 40 41 41 40 38 35 34 33 33 34 35 34 34 34 33 33 34 35 36 36 37 37 37 37 38 38 39 39 40 41 42 42 42 42 42 42 43 44 45 46 47 48 49 50 50 50 50 50 50 50 49 49 50 50 49 48
45 44 43 42 42 42 42 43 43 44 43 41 40 39 37 35 34 34 35 36 36 37 38 37 37 38 38 39 39 39 38 39 40 41 42 43 43 44 44 45 45 44 44 45 46 47 48 49 50 51 50 49 47 46 46 47 48 47 47 49 49 49 51
44 43 43 43 43 44 44 44 44 44 43 42 42 41 40 38 37 37 38 39 40 42 42 41 41 40 40 40 40 40 41 42 43 44 44 45 45 46 47 48 47 46 45 46 48 49 50 51 51 50 49 48 48 48 48 49 49 49 49 51 52 52 54
41 41 42 43 44 43 43 43 43 44 43 43 43 43 42 42 42 42 42 42 43 44 44 44 44 43 42 42 42 43 43 44 44 45 46 46 47 49 50 50 50 49 48 48 49 50 50 49 49 49 49 49 50 51 52 53 53 52 53 54 55 56 57
42 43 43 43 43 43 43 43 44 45 46 46 46 46 45 45 45 44 44 43 43 43 43 44 43 43 43 44 44 45 45 46 46 47 48 48 49 51 52 52 52 51 50 49 48 47 47 46 47 48 49 51 52 53 55 56 56 56 56 57 58 59 60
47 48 47 46 44 45 45 46 47 47 48 48 48 47 46 45 44 44 43 43 43 43 43 44 45 45 45 46 47 48 48 49 49 49 50 51 51 52 52 52 52 52 51 49 47 46 45 46 47 49 51 53 54 56 57 58 59 59 60 61 60 60 60
49 49 50 49 47 47 47 48 49 49 49 48 48 48 47 46 46 46 46 46 46 46 47 48 49 49 49 50 51 51 51 51 51 51 51 51 51 51 51 51 51 51 50 49 49 48 49 50 51 52 53 54 56 58 60 62 62 62 62 62 61 62 64
52 52 51 50 49 48 48 48 48 49 49 48 49 49 49 49 49 50 49 49 50 50 51 52 53 52 52 52 52 51 51 51 51 51 50 51 51 51 52 52 52 51 50 51 52 52 53 53 53 53 54 56 59 61 63 66 66 65 63 63 64 66 69
54 54 54 53 51 50 50 50 49 49 49 49 50 50 51 51 52 52 52 52 52 52 52 52 52 52 51 51 50 50 50 50 51 52 52 52 52 52 52 52 52 52 52 53 54 55 56 57 57 59 61 64 66 68 69 70 70 68 67 67 68 69 70
58 56 55 55 55 55 55 55 54 54 54 54 54 54 54 54 55 55 54 54 53 53 53 53 53 54 53 52 51 50 51 52 53 54 54 54 54 55 55 56 57 57 57 59 60 62 64 66 67 70 72 74 75 74 74 73 72 71 71 71 72 72 72
62 61 59 58 58 58 59 60 60 60 61 61 60 60 60 60 60 60 59 59 59 58 57 58 58 59 59 58 58 57 58 58 59 59 60 62 63 65 66 67 67 68 69 70 73 74 75 77 77 78 78 78 78 77 77 77 77 77 77 76 77 78 78
64 64 64 63 62 62 62 63 64 64 65 66 66 66 66 65 65 64 64 64 64 64 63 64 64 64 65 65 66 66 66 67 68 69 71 72 73 75 76 77 78 79 80 81 82 83 83 83 82 80 80 79 78 78 78 78 79 79 80 80 81 82 83
65 66 66 66 66 67 67 67 68 68 69 69 70 70 71 70 70 70 69 69 69 70 70 70 70 71 71 72 73 74 75 76 77 78 79 80 81 82 83 84 85 85 86 86 86 85 85 84 83 82 81 80 80 80 80 80 80 81 81 81 81 83 85
68 68 69 69 70 71 71 72 73 73 73 74 74 74 75 75 75 75 75 75 75 76 77 77 77 78 79 80 81 81 82 83 83 84 84 85 85 85 86 86 87 87 87 87 86 86 85 84 83 82 82 82 82 82 82 81 81 80 79 80 83 86 88
72 72 73 73 73 74 75 76 77 78 79 79 79 79 79 80 80 80 80 80 81 82 82 82 82 83 84 85 86 86 87 87 87 87 87 87 87 87 87 88 88 88 88 87 86 85 84 83 82 82 81 81 81 81 82 81 81 82 84 86 88 90 90

ECMWFFLT1_250_spd_087.txt.gz
Wind_Speed
52 56 58 54 50 47 47 47 48 48 49 51 52 53 54 54 55 58 61 63 62 60 58 56 55 53 52 50 46 46 49 51 51 51 49 48 46 44 43 40 37 35 34 33 34 35 36 36 35 35 36 37 39 38 35 34 35 36 37 36 36 37 39
49 51 56 58 57 56 54 52 51 50 51 53 54 55 56 56 59 63 63 63 62 61 59 56 53 50 48 46 44 44 47 48 47 45 44 44 43 42 41 39 36 34 33 33 34 35 36 36 36 36 36 37 38 38 38 38 39 39 39 39 40 41 42
48 48 50 54 58 61 61 60 58 57 57 58 59 60 61 62 63 63 61 59 59 58 56 53 51 48 44 42 43 44 44 43 42 41 41 41 41 40 38 36 34 32 32 32 33 34 35 36 36 35 35 35 35 35 36 37 40 41 42 42 43 44 44
45 47 48 49 51 55 57 58 58 59 61 62 63 63 65 65 62 61 60 56 54 54 52 49 46 43 40 40 41 41 40 39 39 38 38 38 38 37 35 33 32 32 33 33 33 34 34 34 34 34 34 34 33 33 34 36 38 40 40 40 41 42 43
44 44 46 47 47 49 50 53 54 55 57 59 61 62 63 64 61 59 59 58 55 52 47 42 39 38 38 39 39 40 38 37 35 35 35 36 36 35 33 32 33 34 33 33 33 33 33 33 33 32 32 32 32 33 34 36 37 37 37 37 39 40 42
46 46 46 46 45 45 45 48 50 50 52 53 56 58 59 60 59 55 56 57 53 47 41 37 36 36 37 38 38 38 36 34 33 33 33 34 34 34 34 34 34 33 33 32 32 32 31 31 30 30 30 30 31 32 33 35 36 36 36 37 38 40 41
48 48 47 46 43 41 42 45 47 47 48 48 50 52 52 53 51 49 50 50 47 43 40 38 38 38 38 37 36 35 33 32 32 32 32 33 33 34 36 36 35 34 33 32 32 32 31 30 29 29 29 30 30 31 33 35 37 37 37 37 38 39 39
48 51 48 47 44 42 42 44 46 46 45 44 45 47 47 46 45 45 46 46 44 43 41 40 40 39 38 36 34 33 32 32 32 32 33 33 34 35 36 37 37 35 34 33 33 33 32 31 31 30 30 30 30 32 34 36 37 37 37 37 38 39 38
43 50 49 47 46 44 44 44 44 44 43 42 42 44 44 44 44 44 45 45 45 44 42 42 41 39 37 35 34 33 32 32 32 33 33 34 35 36 37 37 37 36 35 34 34 34 33 33 32 32 32 32 34 35 36 37 38 39 39 39 39 38 37
40 45 47 47 47 46 46 46 46 44 43 41 41 41 42 43 43 43 44 45 46 45 44 43 41 39 36 35 34 33 32 32 32 33 34 35 36 37 37 37 37 37 36 35 35 35 35 35 34 35 35 36 37 38 38 39 40 41 41 39 38 37 35
43 43 44 46 46 46 46 46 45 43 41 40 40 40 42 43 44 43 43 44 45 44 43 42 40 38 36 35 35 34 34 34 34 34 35 35 36 37 37 37 37 38 37 36 36 37 37 37 38 38 38 39 39 40 40 41 43 44 41 37 34 32 29
44 42 43 44 45 46 47 47 45 43 41 42 42 41 41 42 45 45 44 43 42 42 41 40 40 39 38 38 38 37 37 37 36 36 35 35 36 37 38 38 38 39 39 39 38 38 39 39 40 40 40 40 40 40 41 43 45 43 38 31 27 25 24
45 44 43 43 43 44 45 47 47 45 43 42 43 43 42 42 45 47 47 45 44 43 42 42 41 41 42 42 41 41 39 38 37 36 35 34 35 37 39 39 40 40 40 40 39 39 40 40 40 40 39 39 40 41 42 42 41 38 32 27 24 24 24
48 46 44 42 42 42 43 44 45 45 43 42 42 42 42 42 43 45 47 48 48 47 47 46 45 45 46 46 44 42 41 39 38 37 35 34 35 37 39 40 40 40 40 39 39 39 40 40 39 38 37 38 40 41 40 36 34 32 29 27 27 29 31
47 46 44 42 41 42 43 44 44 43 42 41 41 40 41 41 42 43 46 48 49 49 49 49 49 49 49 49 46 43 41 40 38 37 36 35 36 37 39 40 40 40 39 39 39 40 40 39 38 37 37 39 40 38 35 31 30 30 30 31 32 34 37
45 44 44 43 40 39 41 43 43 42 42 41 40 39 39 40 42 43 46 47 49 49 49 49 50 51 51 49 47 43 41 40 39 38 37 36 36 37 39 40 40 40 40 40 40 40 40 39 38 38 39 40 38 35 32 30 30 31 33 35 37 38 41
46 44 43 42 40 37 38 42 43 42 42 40 39 39 41 42 43 44 46 48 48 49 50 50 52 52 51 48 45 43 41 41 40 38 37 36 36 37 37 38 40 41 40 40 40 40 39 39 40 40 39 38 36 34 33 33 33 34 37 39 41 42 44
50 48 47 46 43 40 41 45 46 45 44 43 41 41 43 44 45 46 48 49 50 51 52 53 53 51 49 47 44 42 41 41 39 38 37 36 36 35 35 36 38 39 39 39 39 39 39 41 42 41 40 38 37 36 36 37 38 39 40 42 44 45 45
49 48 48 48 46 45 47 49 50 49 47 45 44 44 45 46 48 49 50 51 52 53 53 53 51 49 47 45 43 41 40 39 38 37 36 35 34 33 33 34 35 37 38 38 38 39 40 41 42 42 41 40 38 37 38 40 41 41 42 44 46 46 46
47 44 44 45 45 46 47 49 50 50 48 45 44 44 45 46 48 50 51 51 51 51 50 49 47 45 43 42 40 39 38 37 36 35 35 34 33 33 33 34 35 37 38 38 39 40 41 41 41 42 42 40 38 38 39 41 43 44 44 44 46 47 48
47 44 43 45 45 45 45 46 46 46 45 44 44 45 45 45 46 46 46 46 46 46 46 44 43 41 39 38 37 36 35 35 35 34 34 34 34 34 35 35 36 38 39 40 40 41 41 41 42 42 42 42 41 41 41 42 45 47 47 47 47 49 49
46 45 45 46 46 46 45 44 44 43 43 43 42 43 43 42 42 41 41 41 41 41 41 40 38 37 36 35 35 34 35 35 35 34 34 35 36 36 36 36 37 38 39 40 40 41 42 43 43 43 42 43 43 43 42 43 45 48 50 50 49 48 47
43 44 44 46 46 46 46 44 44 43 42 41 40 40 40 40 40 38 38 38 38 38 37 37 36 36 35 35 35 36 36 36 35 35 36 37 38 38 37 37 37 38 39 40 42 43 43 44 43 42 42 42 43 44 44 44 45 46 48 48 47 45 45
45 44 44 45 46 46 46 45 45 45 43 42 41 41 40 40 39 38 38 37 36 36 36 36 37 36 36 36 36 37 37 36 35 36 37 38 39 39 38 38 38 39 40 42 44 45 44 43 43 43 43 43 43 45 46 46 46 45 45 45 45 45 46
46 47 47 47 47 47 47 47 48 48 48 46 44 43 42 42 41 41 42 41 39 37 37 38 38 38 38 38 38 38 38 39 39 40 40 41 42 42 42 41 42 43 44 45 46 46 45 45 45 46 46 46 46 47 48 49 49 48 47 47 48 49 50
45 47 49 49 49 49 49 50 50 50 51 51 49 47 46 45 45 45 46 45 42 40 40 40 40 40 40 40 40 42 43 43 44 45 45 45 45 45 45 46 47 48 48 48 47 47 47 47 48 49 50 49 49 50 52 53 52 51 50 51 51 52 53
44 47 49 49 51 52 53 52 52 51 52 53 52 51 49 48 48 48 49 48 46 43 42 42 42 42 43 44 45 46 47 47 47 47 47 47 47 47 48 49 50 50 49 48 48 48 49 50 51 52 52 51 51 53 55 55 54 53 53 53 54 55 55
39 42 45 46 49 52 53 53 53 52 51 52 53 53 51 48 48 48 49 50 48 46 45 45 45 46 48 48 49 49 49 49 48 48 47 47 47 49 50 51 51 51 49 49 50 51 52 53 53 52 52 52 54 56 56 56 56 55 55 56 57 57 58
39 38 40 42 44 47 50 53 55 54 54 53 53 51 48 46 46 47 48 49 48 47 47 48 49 50 51 51 50 50 50 49 48 48 48 48 48 50 52 52 53 53 53 54 54 54 53 53 54 54 54 56 57 58 57 56 57 57 57 57 59 61 63
46 44 44 44 44 45 48 51 54 54 54 53 52 50 47 46 46 47 49 49 49 49 50 50 51 51 51 50 50 49 49 49 49 50 50 50 51 52 54 55 56 57 57 56 54 53 54 55 56 57 59 60 60 59 59 59 60 61 62 63 66 69 72
51 50 49 49 49 49 49 50 51 52 53 54 53 52 51 50 50 50 50 50 50 51 50 50 50 50 50 50 50 50 50 50 51 52 52 53 55 56 57 58 58 58 57 55 55 56 58 60 61 63 64 65 65 65 66 67 68 69 71 72 74 76 78
56 55 54 53 54 54 53 52 51 52 53 54 55 55 55 55 55 55 54 54 54 53 52 52 52 52 52 52 52 52 52 53 54 55 56 57 58 59 59 59 59 59 60 61 62 64 65 66 67 68 70 71 72 73 74 75 76 77 78 79 80 80 80
63 61 58 57 57 57 56 54 53 52 52 52 53 54 55 55 55 55 55 55 55 55 55 55 55 55 55 55 55 55 56 57 57 58 59 60 61 62 63 63 64 65 66 68 69 71 72 72 74 75 77 78 79 80 81 81 82 82 83 83 83 83 82
67 67 64 61 59 58 57 57 56 55 54 53 54 54 55 55 54 54 54 54 55 55 55 56 56 57 57 57 58 59 60 61 62 63 64 65 66 68 69 70 70 71 73 74 75 77 78 80 81 82 83 83 84 84 85 85 86 86 86 85 84 83 82
65 67 67 66 64 62 60 60 59 58 57 56 57 57 58 58 57 56 56 56 57 57 58 58 60 61 61 62 63 64 65 66 67 68 69 70 71 72 74 75 77 78 79 80 81 83 84 85 85 86 86 86 87 87 88 88 88 87 86 84 82 81 80
64 65 67 69 70 69 67 66 65 64 63 62 62 62 62 62 62 61 61 61 62 63 63 64 65 67 68 68 69 70 71 71 72 73 74 75 76 78 79 81 82 83 84 85 86 87 87 87 87 88 88 89 90 90 90 88 86 84 82 80 79 78 78
68 67 67 68 71 72 73 72 71 70 69 69 68 68 67 67 67 67 68 68 69 70 71 72 72 73 74 74 75 76 76 77 78 79 80 81 82 83 85 86 87 88 88 89 89 89 89 89 90 90 91 92 92 90 88 86 83 81 80 79 78 78 78

ECMWFFLT1_250_spd_093.txt.gz
Wind_Speed
48 47 45 42 39 36 31 30 36 38 38 42 44 44 45 44 41 40 40 41 43 44 45 45 45 45 45 44 44 44 44 44 44 47 50 52 53 55 56 55 49 40 35 33 33 32 31 31 31 31 33 34 34 33 30 27 26 26 27 27 27 27 27
47 46 44 42 41 38 33 33 39 40 39 42 43 45 47 47 46 44 44 44 44 45 45 46 47 47 46 45 45 45 46 47 49 51 53 53 54 56 55 50 43 35 32 32 31 30 30 30 31 32 33 34 35 34 31 28 27 27 27 26 26 25 25
43 45 44 41 41 41 39 39 41 42 42 44 43 43 44 45 45 45 46 46 46 46 46 46 47 48 48 47 48 49 50 51 52 53 53 54 54 54 50 44 37 32 31 31 29 29 30 30 30 32 33 34 35 35 32 29 27 26 26 25 24 24 23
38 40 43 43 42 42 43 44 43 42 42 43 43 43 43 42 42 43 45 48 48 49 48 48 49 50 51 52 53 53 53 54 54 54 53 52 51 48 43 37 32 31 30 29 29 29 29 29 31 32 33 34 35 35 32 29 28 26 25 24 23 23 23
37 35 38 42 44 44 44 43 42 40 39 40 41 42 43 42 41 40 42 46 49 51 51 51 51 51 52 53 54 55 55 54 53 51 49 47 44 40 35 32 30 30 29 29 29 29 29 30 31 32 33 34 35 35 32 29 28 26 25 24 25 24 24
39 35 35 38 42 43 43 42 40 38 37 38 39 40 41 41 41 39 38 40 43 45 46 47 48 49 51 51 51 51 49 47 44 43 42 40 36 33 31 29 29 29 29 29 29 28 30 31 32 32 33 34 35 34 31 29 28 27 26 26 25 25 25
42 38 36 36 38 39 39 40 40 39 37 37 36 36 36 37 38 38 38 38 38 38 38 38 40 42 42 41 40 40 39 38 38 37 36 34 32 31 29 29 28 29 29 29 29 30 31 32 32 33 33 34 34 33 31 29 29 28 27 26 26 27 28
44 41 38 37 37 38 38 37 38 39 38 38 38 36 37 37 36 36 37 37 37 36 35 34 34 35 35 35 35 36 36 36 36 35 33 32 31 30 29 29 30 30 30 30 30 32 33 33 33 34 34 35 34 33 31 29 29 28 27 27 28 28 29
46 41 39 38 38 39 38 35 35 36 37 38 39 40 41 40 37 35 35 35 35 35 34 33 33 33 34 36 36 36 36 35 35 35 33 31 31 30 30 31 32 31 31 32 32 33 33 34 34 35 35 35 35 34 31 30 30 29 29 28 29 29 30
49 43 40 38 37 38 38 36 36 37 37 37 39 41 43 43 41 39 36 34 33 33 33 33 33 34 36 37 38 38 38 38 37 35 33 31 30 31 32 33 33 33 33 34 34 34 35 35 36 36 36 36 36 35 33 32 31 30 29 29 29 30 31
50 46 42 40 38 37 38 38 38 39 39 40 40 41 43 44 45 45 42 38 36 34 33 33 34 36 37 38 39 39 39 39 37 35 33 31 31 32 33 34 35 35 35 35 35 36 36 36 37 38 37 37 36 36 34 32 31 31 30 29 29 30 31
48 46 43 42 39 37 37 38 39 39 41 44 45 45 45 46 46 47 47 46 43 39 36 34 35 36 38 39 39 39 39 38 36 34 33 32 32 33 35 36 36 36 36 37 38 39 39 38 38 39 38 37 37 37 35 32 31 30 29 29 29 30 30
45 45 43 41 39 37 35 36 38 39 40 44 46 48 49 49 48 48 49 49 48 45 41 39 38 38 39 39 39 39 39 38 36 35 34 34 34 36 37 38 38 39 39 40 41 41 40 40 40 39 38 37 37 37 35 32 30 30 29 29 30 30 30
41 44 44 42 40 38 36 36 37 38 39 41 43 47 52 54 52 50 49 48 47 45 44 42 41 40 39 38 38 38 38 38 37 36 35 35 36 37 38 39 40 41 42 43 43 41 41 41 41 39 37 37 36 36 34 32 31 30 30 30 30 30 30
35 40 42 41 39 37 38 40 41 40 40 41 39 39 45 50 51 50 50 49 47 45 44 42 41 40 40 38 37 37 37 37 36 36 36 36 36 37 38 40 41 42 43 43 43 42 42 42 40 38 36 35 34 34 33 31 30 31 30 30 30 30 31
33 36 38 39 36 35 39 43 45 45 45 45 42 38 39 43 44 45 46 45 44 43 42 42 42 41 40 38 37 37 37 36 37 37 38 38 38 38 39 40 40 41 42 42 42 42 42 41 39 37 35 32 31 31 31 30 29 29 30 30 30 31 32
33 32 32 33 33 35 38 40 43 47 48 47 48 48 49 49 47 46 47 46 45 45 45 44 44 42 39 38 38 37 37 37 38 39 40 41 40 40 39 39 40 41 42 42 43 42 41 39 37 35 32 30 28 27 27 28 28 28 29 30 31 32 34
34 32 28 27 30 34 37 37 39 44 47 48 50 52 54 55 54 53 53 51 49 48 48 46 43 40 38 38 38 37 38 39 41 43 43 42 41 40 39 39 40 43 43 43 43 41 38 36 33 32 31 29 26 25 25 26 28 29 29 30 32 33 33
32 30 27 27 30 33 35 36 37 40 44 47 50 52 53 55 56 56 54 51 49 48 47 44 41 39 38 39 39 39 40 42 44 45 43 42 40 39 39 40 42 44 44 43 40 37 34 31 30 30 30 28 27 26 26 27 28 29 30 31 32 33 33
33 31 31 31 32 33 34 37 39 40 42 44 47 49 50 51 53 53 52 50 48 47 46 45 43 41 41 42 42 42 42 43 44 43 42 40 39 39 41 42 43 44 43 40 36 33 30 29 29 30 30 29 29 29 29 29 30 31 32 32 33 34 35
33 32 34 35 34 34 35 37 40 41 41 43 45 46 48 49 49 49 49 48 47 46 46 46 46 45 45 44 43 42 41 42 43 42 41 40 40 40 41 42 42 41 39 35 33 31 30 30 31 31 31 31 32 32 33 33 33 33 34 35 35 37 38
34 32 34 37 38 37 37 38 41 42 40 40 43 44 46 47 46 46 46 46 46 46 46 46 45 45 44 43 42 41 40 40 41 40 40 40 41 41 40 39 39 37 35 33 32 32 32 32 32 33 33 34 35 35 36 36 36 36 37 38 39 40 41
38 36 36 38 39 39 41 44 46 45 43 41 41 43 45 47 47 48 48 48 48 47 46 46 45 43 42 41 40 39 38 38 39 39 40 41 41 41 39 38 36 35 34 34 34 34 35 35 35 36 36 37 37 37 38 38 39 39 40 41 43 44 45
40 40 40 42 42 42 44 47 49 48 47 46 44 44 46 48 49 51 52 52 52 51 50 49 48 46 45 43 41 40 39 39 40 41 41 42 42 41 39 37 35 34 35 36 37 37 38 39 39 39 39 40 40 40 40 41 41 42 44 45 46 47 47
41 42 44 45 46 45 45 46 48 50 50 49 48 47 47 47 49 50 52 53 53 53 54 53 52 51 49 47 45 43 41 40 41 42 42 42 42 42 41 39 38 38 38 39 40 40 41 41 42 42 42 42 43 43 43 43 44 45 47 49 49 49 50
38 40 44 46 48 48 47 46 46 48 50 51 51 51 52 52 52 52 52 53 53 54 54 54 53 51 50 48 47 45 43 42 42 43 43 43 43 43 42 42 41 41 42 42 42 43 43 44 44 44 45 45 46 47 47 47 48 48 50 51 52 53 53
38 38 40 44 47 49 50 50 50 50 52 53 53 54 54 55 55 55 54 54 54 54 54 53 51 50 50 49 47 46 45 45 45 46 46 45 45 45 45 45 45 45 46 45 45 46 46 46 46 47 48 49 50 50 51 51 51 51 52 54 55 55 56
40 40 40 43 47 49 50 52 53 53 53 54 54 55 55 55 56 56 56 55 55 55 54 54 53 52 51 50 49 48 48 49 49 49 48 48 48 49 49 50 50 50 49 49 49 48 48 48 48 49 51 52 53 53 53 53 54 55 56 56 57 57 58
42 43 44 47 50 51 51 51 52 52 52 53 54 55 56 57 57 58 58 59 58 57 57 55 53 53 53 52 51 51 51 52 52 51 50 50 51 52 52 53 53 52 52 52 51 51 51 51 51 52 53 54 55 55 56 56 56 57 58 58 58 59 59
46 45 46 50 52 53 53 53 53 54 54 54 54 54 55 55 56 57 59 60 59 59 58 56 55 54 54 53 53 52 53 54 55 54 54 54 54 54 54 54 54 54 53 53 53 53 53 53 54 55 56 57 57 58 58 59 59 59 59 59 60 60 61
52 48 47 50 52 53 55 55 55 55 57 57 57 56 55 56 56 57 57 58 60 60 58 56 56 56 56 55 55 55 56 59 59 57 56 56 56 55 55 55 54 54 54 54 54 54 55 56 57 58 59 59 60 60 61 61 61 61 61 61 62 62 63
59 56 52 50 51 53 56 56 55 56 57 58 57 57 57 57 57 57 56 56 59 61 58 56 57 58 58 58 58 57 59 60 59 57 56 55 55 55 55 55 55 55 56 57 57 57 58 59 60 61 62 62 62 63 63 64 63 63 63 64 64 65 66
62 61 59 56 54 54 56 57 56 56 57 56 55 55 56 57 56 55 56 57 59 61 59 58 59 60 60 59 58 57 57 58 57 56 56 55 55 56 56 57 58 58 59 59 61 61 62 62 63 63 64 64 64 65 65 65 65 66 66 66 67 67 70
63 63 63 62 60 58 57 57 57 57 55 52 52 52 53 55 54 53 53 56 59 61 61 61 62 62 60 59 58 57 56 57 57 58 58 58 59 59 60 60 61 62 62 63 64 65 66 66 67 67 67 67 66 66 66 66 67 67 68 69 70 73 77
62 63 64 64 63 61 59 58 59 58 53 48 50 53 54 55 54 53 53 54 56 59 61 63 63 62 59 57 57 57 57 58 59 60 61 62 62 63 64 65 66 67 68 69 70 70 70 70 70 69 69 68 68 67 67 67 68 69 71 74 78 80 83
59 60 62 63 63 62 60 58 58 58 55 52 54 58 60 59 59 58 58 58 59 60 62 65 64 62 59 59 59 60 61 62 63 64 65 65 66 68 69 70 71 72 72 72 72 72 71 71 70 69 68 68 68 68 69 71 73 76 78 81 83 85 86
58 58 59 61 62 61 61 60 58 58 60 61 61 61 62 62 63 62 62 63 63 63 63 65 64 63 62 62 63 64 66 66 67 68 69 69 70 71 71 71 72 71 71 70 70 69 69 69 68 68 69 69 71 73 75 78 80 82 84 86 87 89 90

ECMWFFLT1_250_spd_096.txt.gz
Wind_Speed
45 43 40 40 42 44 43 40 38 36 34 34 34 34 33 34 36 35 35 37 38 36 37 38 37 36 36 37 39 40 40 41 42 42 43 44 45 45 46 48 50 51 51 51 50 44 32 26 25 25 24 24 24 26 27 29 30 31 31 28 24 22 22
43 44 43 41 41 42 44 43 41 38 36 36 36 35 33 33 37 39 39 40 39 38 39 39 38 38 38 39 41 43 43 43 43 43 44 45 46 47 49 51 52 51 49 48 45 36 27 25 25 24 24 24 25 26 27 29 30 31 31 28 24 22 21
39 42 44 43 42 42 43 44 44 43 41 39 39 38 35 34 37 40 42 42 41 40 39 39 39 40 41 43 45 45 45 45 44 44 45 46 48 50 52 53 50 47 45 43 37 29 25 25 25 24 24 24 25 27 28 30 30 31 31 29 25 22 21
38 39 43 44 43 42 43 44 45 45 43 42 43 43 41 38 38 39 41 42 41 39 38 37 37 38 40 43 46 47 47 47 47 47 48 49 50 52 52 47 41 39 38 36 30 25 25 24 24 25 24 25 26 27 29 31 31 32 32 29 26 23 22
39 39 41 43 43 43 43 44 45 46 45 44 45 46 45 42 39 38 37 38 38 38 38 37 36 36 36 38 41 44 46 46 47 48 49 49 50 48 43 37 34 34 34 30 27 25 25 24 25 25 25 26 27 28 30 31 32 32 32 30 27 24 23
41 40 41 41 41 42 43 44 45 45 44 43 43 43 43 42 40 39 37 36 36 37 37 36 36 36 36 36 36 38 40 41 41 41 42 42 40 37 32 31 32 34 31 28 27 26 25 25 25 26 27 28 28 29 31 32 33 33 32 30 28 25 24
44 42 42 41 40 39 40 42 44 44 43 42 42 42 42 41 41 40 38 36 36 36 36 36 36 36 36 36 35 35 35 35 35 35 35 34 32 30 29 31 33 33 31 29 28 26 25 26 27 28 29 30 30 30 32 34 34 33 32 31 28 26 25
47 46 43 41 40 38 37 38 40 41 42 42 43 44 43 43 42 40 39 38 38 37 36 36 36 35 35 35 36 35 35 34 34 33 32 31 30 30 31 32 33 33 31 30 28 27 26 28 29 30 31 31 31 32 33 35 35 34 32 30 29 28 27
47 47 44 41 40 38 36 34 35 36 38 40 42 43 43 42 42 40 40 40 40 39 38 38 37 36 35 34 34 34 33 33 33 33 32 31 31 32 33 33 32 32 31 30 29 28 28 30 32 32 32 32 33 33 34 36 36 34 32 31 30 29 28
45 47 45 42 40 38 37 34 32 32 33 36 39 41 42 41 41 41 41 42 41 40 39 40 40 38 38 37 35 34 33 33 33 32 31 32 33 34 33 32 31 31 31 30 30 29 30 32 34 33 33 34 35 34 35 37 36 35 33 31 30 30 29
43 46 44 42 40 39 38 36 32 31 32 33 36 40 42 42 41 42 43 42 41 41 40 40 40 39 39 39 39 39 38 37 35 34 33 33 34 34 33 32 31 31 31 31 31 31 33 35 35 35 35 37 37 36 36 37 36 34 33 31 30 30 29
37 43 42 39 39 39 39 39 37 36 36 36 37 39 41 42 43 43 43 42 41 41 40 40 40 39 39 40 40 41 41 40 39 37 36 34 34 33 32 31 30 30 31 31 32 33 36 37 37 37 37 38 37 36 36 37 35 33 32 30 30 30 28
31 38 40 38 37 39 43 46 46 42 41 41 40 39 40 42 43 44 43 41 40 40 39 39 39 39 39 40 40 40 40 40 40 38 36 34 34 33 31 30 29 30 32 33 34 36 38 39 39 38 38 37 36 36 37 36 34 32 30 29 29 28 27
27 34 39 37 36 41 47 50 50 46 43 42 41 40 41 42 43 43 41 40 39 39 39 39 40 40 40 40 40 40 41 41 39 37 35 35 34 32 30 29 29 31 33 34 36 38 39 40 39 38 37 35 35 37 37 36 32 30 28 27 26 26 26
27 28 31 34 38 43 45 46 47 46 43 41 40 40 40 41 41 42 41 39 39 40 40 40 41 41 41 41 40 40 40 40 38 36 36 36 34 32 30 29 30 32 34 36 38 39 39 40 39 37 36 35 36 37 37 34 31 29 27 25 24 24 24
25 24 28 35 41 43 41 41 42 43 42 41 40 40 40 41 41 42 43 43 43 43 43 42 42 42 41 41 40 39 38 38 38 38 38 37 34 32 31 30 32 34 36 37 38 39 39 39 39 37 36 36 36 36 35 32 29 28 27 25 24 23 24
25 27 31 35 38 38 38 39 40 41 43 43 43 43 43 44 44 43 44 45 44 43 42 41 41 42 42 41 41 40 40 40 41 41 40 37 33 31 31 32 35 36 37 37 38 39 39 39 39 38 37 37 36 35 32 30 28 28 27 26 25 25 25
29 30 31 32 34 35 34 36 37 39 41 41 41 42 43 46 46 44 44 44 43 42 41 39 37 38 41 41 42 43 43 43 43 41 38 35 33 32 33 35 36 37 37 37 38 38 38 39 39 39 38 37 36 33 31 29 29 29 28 28 28 28 27
31 32 31 31 33 34 33 34 34 35 36 36 37 39 43 46 46 45 45 46 45 44 44 42 40 41 43 44 44 43 42 42 42 40 37 35 34 35 36 37 37 38 38 38 38 38 38 39 39 39 38 37 35 32 30 30 30 30 31 30 31 31 31
32 32 32 33 33 32 33 35 35 33 33 34 36 40 43 44 44 44 45 47 48 48 48 47 46 45 44 44 43 41 40 40 40 39 38 36 37 39 39 39 38 39 39 37 36 37 38 39 39 39 38 37 35 32 31 31 32 32 33 33 33 33 34
34 33 32 33 32 33 33 34 34 33 33 35 36 38 40 42 43 43 44 45 48 49 49 48 47 45 43 41 40 38 37 38 38 38 38 38 40 41 41 41 40 39 38 36 36 37 38 39 39 39 38 37 35 33 33 34 34 35 35 36 36 36 37
36 36 36 33 31 33 34 34 34 34 35 36 35 35 39 41 41 42 42 42 43 43 44 44 44 43 42 40 39 38 37 36 36 36 37 38 40 41 41 40 40 39 38 37 37 37 38 39 39 39 38 37 36 36 36 37 37 37 38 39 39 40 40
37 38 39 37 33 34 35 34 34 37 39 39 37 36 37 38 38 39 40 40 40 40 41 41 42 42 42 42 42 41 40 38 37 37 37 37 38 39 40 40 40 40 40 39 39 38 38 39 39 39 39 38 39 39 39 39 39 40 41 42 43 43 43
39 39 40 40 38 37 37 37 37 38 39 40 41 40 38 37 37 37 38 40 41 42 42 43 43 44 44 45 45 46 45 44 44 43 43 42 42 43 44 44 44 44 43 41 40 39 39 39 39 40 40 41 42 42 42 42 42 44 45 46 46 47 47
40 40 40 40 41 41 40 39 39 40 40 41 42 43 42 42 41 40 39 40 42 43 44 44 45 45 45 45 46 47 47 47 47 48 48 48 48 48 49 48 48 46 44 42 40 40 40 41 41 42 43 44 44 44 44 45 46 47 48 48 49 50 50
37 38 38 39 41 43 42 40 40 41 42 43 44 44 44 46 47 47 46 47 47 48 48 47 47 47 46 46 46 46 46 46 47 48 48 49 50 50 50 49 48 46 44 42 42 42 43 44 45 46 46 47 47 47 48 49 49 50 50 51 51 52 52
38 39 39 39 40 42 43 42 41 41 43 46 47 47 48 49 51 52 53 53 53 53 53 53 52 51 50 50 49 49 48 48 47 48 48 49 49 49 49 49 47 46 45 44 45 46 47 48 49 49 50 50 50 50 51 51 51 51 52 52 53 54 55
39 40 42 41 41 42 43 43 44 45 46 48 48 48 50 52 53 54 55 55 55 55 55 55 54 54 53 53 52 52 51 50 50 50 51 51 50 50 50 49 48 47 47 47 48 49 50 51 52 52 52 52 52 52 53 53 53 53 53 54 55 56 57
40 39 42 42 40 41 42 43 45 47 49 50 50 50 52 53 54 54 55 56 57 57 57 56 56 56 56 55 55 55 55 55 55 55 54 53 52 51 50 49 49 49 49 49 50 51 53 54 54 55 55 54 54 54 54 54 55 55 55 56 57 58 59
43 40 41 42 42 41 41 42 44 46 47 48 48 49 52 54 55 55 55 56 57 58 58 58 58 59 58 58 58 59 59 60 59 58 57 55 54 53 52 51 51 51 51 52 53 54 55 55 56 56 56 55 55 55 55 55 55 56 57 58 59 61 62
48 44 43 43 45 45 45 44 44 46 48 48 48 49 52 55 56 56 57 58 59 60 60 61 61 62 62 62 62 62 63 63 62 61 59 57 56 55 54 53 53 53 54 55 56 56 56 56 56 56 56 55 55 56 56 56 57 58 59 60 62 63 65
51 50 48 47 47 47 48 48 49 51 51 51 52 54 55 56 57 58 59 60 61 62 63 63 64 64 64 63 63 63 64 64 64 63 61 59 58 57 55 54 55 56 57 57 58 57 57 56 56 56 56 56 56 57 57 58 59 61 62 64 65 67 68
53 53 52 52 50 50 49 49 51 53 54 55 57 58 59 60 61 61 62 63 63 64 64 64 64 65 64 63 63 64 64 65 66 64 63 62 60 58 57 57 57 58 58 58 58 58 57 57 57 57 58 58 59 59 60 61 63 64 66 68 69 70 70
53 54 55 55 54 54 53 53 54 55 57 58 59 59 60 61 62 63 64 64 65 65 65 65 66 67 67 66 66 65 65 67 67 66 64 64 62 59 58 59 59 58 58 58 59 59 59 60 60 61 61 62 63 64 64 66 67 69 70 71 71 72 71
50 52 55 57 57 57 58 58 58 58 59 61 61 60 60 60 60 62 63 62 61 61 62 64 66 67 68 68 67 67 67 68 68 66 65 65 64 62 61 60 60 59 59 60 61 62 63 64 65 65 65 66 67 68 69 70 71 71 72 72 71 71 70
49 49 50 53 56 58 59 60 61 61 62 62 62 63 63 62 62 63 63 61 59 59 61 63 63 63 65 65 66 67 68 67 66 65 65 65 65 64 62 61 61 61 61 62 64 65 66 67 67 68 69 69 70 71 72 72 72 72 72 71 70 69 69
52 51 50 50 51 54 57 59 60 61 63 63 64 65 65 65 64 64 63 62 61 62 63 64 63 61 62 63 64 65 65 65 64 64 65 64 64 63 62 62 62 63 64 66 67 69 70 70 70 71 72 72 73 73 73 72 72 72 72 71 71 71 72

ECMWFFLT1_250_spd_102.txt.gz
Wind_Speed
31 33 37 41 43 44 42 40 39 40 42 43 42 40 39 37 36 35 32 29 28 28 26 26 26 27 28 28 29 31 33 36 34 31 30 26 23 24 25 28 32 34 35 37 39 42 42 41 41 41 42 41 35 29 27 28 29 28 28 28 28 29 29
33 32 35 39 43 45 45 43 40 40 42 44 45 43 42 40 39 37 34 30 28 28 28 28 30 31 30 30 31 32 35 37 37 35 31 26 24 25 27 31 33 33 34 36 36 37 38 39 40 40 38 35 31 29 29 30 31 30 29 29 29 29 29
37 35 34 38 43 46 47 47 44 42 42 43 45 46 45 43 41 39 36 34 32 31 32 34 35 34 34 35 35 37 39 40 40 37 31 27 26 27 29 31 31 31 31 31 31 31 32 33 33 32 31 30 30 30 31 32 32 31 31 30 29 29 29
40 39 38 37 42 46 48 49 47 44 43 44 43 44 45 44 42 41 37 36 36 36 35 36 36 37 38 39 39 40 40 41 40 37 31 28 28 29 30 30 31 33 31 29 29 29 28 28 28 28 28 29 30 31 33 34 33 32 32 30 29 29 29
39 40 39 37 41 46 48 49 49 47 46 47 43 39 42 45 42 41 38 36 38 40 38 37 36 37 38 39 40 40 40 42 41 37 31 29 30 31 30 30 33 34 30 28 29 29 28 27 28 28 29 31 32 33 33 34 34 33 32 31 30 29 30
39 38 38 37 40 45 47 49 51 51 50 50 46 40 42 46 44 42 41 39 38 39 40 39 38 37 36 35 36 37 39 43 43 37 32 31 32 33 32 32 33 32 30 28 28 29 28 28 29 29 30 32 33 33 34 34 34 33 33 31 30 29 30
38 38 37 36 39 44 48 50 52 54 53 52 51 47 44 47 47 44 43 41 38 38 38 37 37 38 38 36 35 34 36 41 43 39 36 34 33 33 32 33 33 31 30 28 28 28 29 30 31 30 31 33 33 33 34 34 34 34 33 32 30 30 31
36 37 36 36 40 45 49 52 54 56 56 54 54 51 46 47 48 46 42 40 39 38 38 36 35 38 39 39 38 37 37 40 40 39 38 36 35 34 33 34 34 32 32 31 30 31 32 32 31 31 32 33 34 34 34 35 35 34 33 32 31 31 31
34 34 34 37 43 48 52 54 54 56 55 54 55 53 47 46 48 46 41 38 36 38 39 38 37 39 39 39 39 39 40 41 41 39 39 39 38 36 34 33 33 34 35 34 33 33 32 30 29 30 31 33 34 35 35 35 35 34 33 33 32 32 33
31 31 32 38 46 51 54 54 54 54 54 52 53 54 49 47 49 48 42 37 36 40 42 41 41 42 40 38 38 39 41 42 42 42 43 43 40 37 35 33 33 35 36 35 34 32 30 29 29 29 31 34 35 35 35 35 34 34 34 34 34 34 34
29 29 32 39 47 51 53 53 51 52 53 51 50 52 51 49 49 51 48 44 42 45 48 47 47 47 45 43 42 41 43 44 43 44 44 43 40 38 36 33 33 36 37 35 33 32 31 30 30 30 32 34 35 35 35 34 35 35 35 35 34 34 35
26 28 33 40 47 50 51 51 50 50 51 50 49 50 50 50 50 51 52 50 48 47 48 50 50 49 49 49 48 47 48 47 45 44 42 41 40 37 35 33 34 38 38 36 34 33 33 32 32 32 33 35 36 36 36 35 35 36 36 35 34 34 34
24 27 33 40 45 50 51 50 48 47 47 48 49 48 48 48 49 51 52 52 51 48 46 48 49 48 47 47 48 51 52 49 46 45 43 43 41 39 38 38 39 39 38 37 36 36 36 35 34 34 35 36 37 38 37 37 36 36 35 34 33 33 33
25 28 32 37 43 48 50 49 47 47 46 46 46 47 45 45 46 49 51 52 52 50 48 48 49 49 48 47 48 51 52 51 49 48 45 44 44 44 43 41 40 40 40 39 38 38 38 38 37 38 38 39 39 39 39 38 37 36 35 34 33 32 32
24 26 30 33 37 43 47 47 46 45 45 43 43 43 42 41 43 46 49 50 49 49 48 48 47 47 47 49 51 51 51 51 52 51 49 48 48 46 44 42 41 41 41 40 40 40 40 40 40 41 41 41 41 41 40 39 37 37 36 35 34 32 31
21 24 26 28 33 40 45 47 45 42 41 41 41 40 40 39 40 43 46 47 45 44 44 45 44 44 44 46 48 49 49 49 50 51 51 50 49 47 44 43 42 42 42 41 41 41 41 42 42 43 43 44 42 41 41 40 38 38 38 37 35 32 31
19 22 25 28 33 40 43 45 45 42 40 40 40 40 40 39 39 41 43 44 43 40 40 40 41 43 45 45 45 44 44 44 46 47 48 47 47 46 45 44 44 44 44 43 42 41 42 43 43 44 44 44 42 42 42 42 40 39 40 39 36 33 33
20 23 27 30 33 38 41 43 45 44 40 38 38 39 39 39 38 39 41 42 42 39 37 37 38 41 45 46 44 41 38 39 44 46 46 45 45 45 46 46 47 47 46 45 43 42 42 43 44 43 42 42 42 43 43 43 42 41 40 40 38 35 35
22 24 27 29 31 34 38 42 46 45 41 38 37 36 36 37 37 39 39 39 40 38 37 37 37 38 41 44 44 41 38 39 44 46 45 44 46 47 48 49 49 48 47 46 44 43 43 43 42 40 40 41 42 43 44 44 43 42 41 41 39 37 38
26 26 26 26 27 30 36 41 46 45 40 36 35 35 35 36 36 37 39 40 41 41 40 41 42 41 41 43 45 46 46 46 47 47 47 48 50 51 51 50 50 49 48 46 45 44 43 41 39 38 39 40 40 42 43 43 44 43 41 40 39 40 41
28 27 26 24 23 26 32 40 45 43 36 32 32 33 34 36 38 40 40 42 44 46 45 47 48 46 44 45 47 49 51 51 51 51 52 53 54 53 52 51 50 49 47 46 46 46 44 41 39 38 38 39 40 41 42 42 42 42 42 42 42 43 44
28 26 25 23 23 24 27 36 43 42 36 31 30 30 31 37 43 45 46 46 46 48 49 51 51 50 48 48 48 49 50 51 52 53 54 54 54 54 53 52 51 49 47 47 48 48 46 43 41 40 40 41 41 41 41 42 42 43 43 44 45 44 44
28 26 25 25 25 25 26 31 39 42 39 34 31 32 34 38 42 44 47 49 49 49 51 52 54 55 54 53 53 52 52 52 53 54 54 54 54 54 54 53 51 50 49 50 51 50 47 44 42 42 42 42 41 41 41 41 41 42 42 43 44 44 44
31 28 27 27 28 29 30 31 35 39 39 36 35 35 35 35 36 38 43 47 48 49 50 51 53 55 56 57 57 56 55 55 55 55 55 55 54 54 54 53 52 51 52 53 53 51 47 44 43 44 44 43 42 41 41 40 40 41 42 43 44 44 44
34 32 31 31 31 32 34 34 33 35 36 37 38 38 35 34 34 36 40 44 46 46 47 49 52 53 54 55 57 56 56 55 55 55 54 54 54 54 54 54 54 54 55 55 53 51 48 47 47 47 46 44 43 43 42 42 42 43 44 45 45 45 45
36 36 35 34 34 34 35 36 35 34 34 36 38 39 39 37 36 36 39 43 45 45 46 48 51 53 53 54 55 56 57 57 56 56 55 55 56 56 56 57 57 57 56 55 54 53 51 51 50 50 48 46 45 45 44 44 45 45 46 47 47 47 47
36 38 38 38 38 37 36 38 38 36 34 34 35 37 40 41 41 40 41 42 44 45 46 47 50 52 52 53 54 55 56 57 57 56 57 57 58 59 59 59 59 58 57 56 56 56 55 54 53 52 50 49 48 47 47 47 48 49 50 50 51 50 50
37 39 41 41 40 40 39 39 40 39 37 35 35 36 38 41 44 46 46 46 46 47 47 48 50 51 52 53 53 53 54 56 56 56 57 58 59 60 60 60 60 59 59 59 59 58 57 56 56 54 53 51 51 50 50 51 52 53 54 54 54 53 53
39 40 41 41 40 42 43 42 40 40 39 37 36 37 39 40 42 45 47 48 49 50 51 51 51 52 53 55 55 55 56 57 58 58 59 60 60 61 61 61 61 61 61 60 60 59 59 59 58 57 55 54 54 54 55 55 56 57 58 57 57 57 56
41 41 43 42 38 39 44 45 43 42 41 40 39 39 41 42 42 42 43 44 46 49 52 54 54 54 55 56 57 57 58 59 59 60 60 61 62 62 63 63 63 63 63 62 62 61 61 61 60 59 57 57 58 59 59 59 61 61 61 60 60 60 59
45 44 45 45 40 37 41 45 46 45 45 44 43 42 43 45 47 46 45 45 46 48 51 53 54 55 56 57 59 59 59 59 60 60 61 62 63 63 64 65 65 65 65 64 64 64 63 62 61 60 60 61 61 62 63 64 65 64 64 63 62 62 62
50 47 47 48 46 41 39 42 45 47 47 47 46 46 47 48 50 51 51 52 52 52 53 54 54 56 57 59 60 61 61 61 62 63 64 65 65 66 67 67 67 67 66 66 66 65 64 63 62 63 64 64 65 66 67 67 67 67 66 65 64 64 63
51 51 50 50 51 49 45 42 42 44 47 49 50 51 51 51 52 52 53 54 55 56 56 56 56 57 59 61 62 62 62 63 65 67 67 66 67 68 68 69 69 69 68 67 66 65 64 65 67 67 68 67 68 68 69 69 69 68 67 67 66 65 65
49 51 53 53 53 54 53 49 45 44 45 49 52 54 55 56 56 56 56 56 57 57 58 59 60 60 62 63 65 65 66 66 68 70 69 68 69 70 71 71 71 70 68 67 67 68 69 70 71 70 70 70 69 69 69 70 70 69 68 68 66 66 66
47 48 51 53 55 56 57 56 53 50 48 48 51 54 56 57 59 59 60 60 61 61 61 62 62 63 64 65 67 69 71 71 72 73 73 72 73 73 73 72 72 71 70 70 71 72 72 71 71 71 70 70 69 69 69 70 70 70 69 69 67 67 66
48 48 47 49 52 55 57 58 58 57 54 52 51 53 56 57 57 58 59 61 63 64 65 65 66 67 67 68 70 71 73 74 73 73 73 73 73 73 73 73 72 71 72 72 72 72 71 71 71 70 69 69 68 69 70 70 71 71 71 70 69 68 68
50 50 49 48 49 52 55 57 58 59 59 57 55 55 57 58 58 58 59 60 62 64 66 67 69 70 70 70 71 72 73 73 72 71 71 72 73 74 74 74 73 72 72 72 72 72 72 72 72 71 70 69 69 69 71 72 73 73 73 72 72 70 69

ECMWFFLT1_250_spd_105.txt.gz
Wind_Speed
35 33 29 28 32 36 39 40 39 41 43 43 43 45 48 49 48 47 45 44 44 40 35 32 30 30 31 33 36 35 34 35 34 33 32 33 36 36 35 32 31 31 30 28 27 28 30 31 32 33 34 34 34 34 33 31 31 32 33 32 32 33 32
39 37 33 28 29 34 39 39 39 42 44 44 45 47 49 49 48 47 46 44 45 42 36 33 33 33 32 33 35 35 34 35 35 34 34 35 37 38 36 34 35 34 32 31 31 32 33 33 32 32 32 32 32 32 31 30 30 32 32 33 34 34 33
41 39 35 29 27 32 37 37 40 45 48 48 47 49 50 50 49 50 47 43 43 42 36 35 38 38 35 32 32 33 34 33 34 35 35 36 36 36 36 37 37 34 33 33 33 34 35 33 32 32 33 33 32 31 31 31 32 33 33 35 36 35 34
42 38 34 29 25 31 38 41 45 49 50 51 51 51 51 50 50 52 49 45 42 38 35 36 38 37 35 32 32 33 33 32 33 35 36 38 37 37 38 39 35 34 34 34 34 35 35 33 32 33 34 33 32 31 31 32 33 34 35 36 36 35 35
43 38 31 26 23 29 39 45 48 48 49 52 54 53 52 50 51 53 51 47 43 39 37 37 35 34 33 34 34 33 33 33 34 36 38 39 39 39 40 38 35 35 36 36 35 36 36 34 34 34 34 33 32 32 33 35 35 35 35 36 36 37 37
44 38 29 23 23 30 38 44 47 47 47 51 54 54 54 52 53 54 52 48 45 43 41 38 36 34 33 34 34 34 34 34 34 37 38 38 37 38 38 36 36 37 38 38 38 38 37 35 34 35 34 33 34 35 36 37 36 35 35 36 37 38 38
46 40 30 24 28 34 40 45 49 50 48 49 53 55 56 55 55 55 53 49 47 46 43 41 39 36 33 32 33 36 36 35 35 36 36 36 36 37 39 39 38 37 37 37 38 38 38 36 35 35 34 34 36 37 37 36 35 35 35 36 37 39 39
48 42 34 30 32 38 44 48 52 52 48 48 53 56 56 57 57 56 55 52 49 48 46 43 41 38 35 33 35 38 38 35 36 36 37 39 40 42 44 43 40 39 38 38 40 40 39 36 36 36 35 36 37 38 37 36 35 36 36 37 38 39 40
49 44 38 34 33 37 43 48 51 51 48 48 51 55 56 56 57 58 57 54 49 48 49 46 43 40 38 36 37 39 40 38 37 38 39 41 40 39 40 39 38 40 41 40 40 40 39 37 37 38 39 38 38 37 37 36 36 37 38 38 38 39 40
49 45 40 36 32 32 36 41 47 50 51 49 48 53 56 56 56 57 56 56 52 50 52 49 45 42 41 42 41 41 42 42 42 41 41 42 41 37 37 37 36 38 40 39 38 39 39 38 39 40 40 40 39 38 38 39 39 40 41 40 39 40 40
49 45 40 34 29 26 28 34 43 48 49 49 47 50 55 56 55 54 54 55 55 53 54 51 46 43 42 44 44 43 43 44 43 42 42 43 43 41 41 40 39 39 40 40 41 39 38 38 40 41 41 42 41 40 40 42 43 43 43 42 41 41 41
49 44 37 30 24 20 21 26 37 42 44 49 50 47 53 56 53 52 51 51 53 54 56 54 48 44 42 42 44 43 43 44 43 41 41 42 41 40 40 41 41 42 42 42 41 39 38 40 42 42 43 45 43 41 42 43 44 45 44 44 44 43 42
47 40 32 24 18 15 18 21 28 34 39 48 48 43 49 57 53 50 49 46 45 49 55 57 52 46 42 41 42 43 45 47 46 42 41 42 40 38 39 40 43 44 43 42 39 38 40 42 42 43 45 46 45 43 43 44 45 46 45 45 46 45 43
44 36 26 17 11 12 18 18 17 24 32 40 45 44 48 56 56 51 48 43 40 42 50 56 54 50 44 38 37 39 41 44 46 44 42 42 42 41 41 42 43 44 44 43 42 42 43 44 44 45 47 47 46 45 44 45 46 46 46 46 47 46 45
39 29 20 13 11 12 18 16 13 22 29 33 41 46 49 54 56 53 48 42 39 40 44 51 53 52 48 40 36 36 38 41 45 46 45 44 44 45 46 46 47 48 48 46 46 45 46 47 47 48 48 48 47 46 46 47 47 47 48 48 47 46 45
34 24 17 15 15 15 17 16 15 22 28 29 34 41 46 50 53 53 46 39 38 39 41 46 50 51 50 46 41 39 39 43 45 47 48 47 45 46 49 52 54 55 53 50 47 45 46 47 49 49 49 49 48 48 48 48 48 49 49 48 46 45 44
28 20 17 17 19 17 16 16 14 16 21 23 27 34 40 44 47 49 44 38 39 41 42 46 50 51 51 49 46 43 41 42 43 44 45 45 44 46 48 51 53 55 55 54 51 49 50 51 51 50 50 50 50 50 50 50 49 49 48 45 43 43 44
23 18 17 18 20 18 17 18 14 16 23 24 25 30 34 37 41 43 41 38 38 41 43 47 50 52 51 48 47 46 43 41 41 40 41 41 42 45 48 49 50 52 53 54 54 53 53 52 51 51 50 51 52 52 53 53 50 48 47 43 41 43 44
20 17 17 18 19 20 21 19 14 19 27 28 28 30 32 36 39 38 37 37 37 39 43 46 46 47 47 44 41 42 41 42 43 43 43 41 39 41 45 47 48 50 51 52 52 53 52 51 50 51 51 53 54 54 55 52 49 48 46 43 42 43 44
20 19 19 19 22 25 25 21 16 20 28 29 29 30 33 38 41 39 38 39 39 41 45 47 46 46 46 44 40 39 41 43 44 45 46 46 43 44 47 49 48 50 51 50 49 50 49 48 49 51 52 54 54 53 52 50 48 48 47 44 43 44 45
24 22 23 24 27 30 26 21 17 21 29 30 30 32 35 39 43 42 41 39 39 43 46 47 49 50 50 48 45 42 43 45 47 48 49 49 49 50 51 49 48 49 50 48 48 48 48 49 51 54 55 56 56 55 53 52 51 50 49 47 46 45 45
29 26 26 28 30 32 28 23 21 25 31 32 34 38 38 39 42 42 42 40 39 42 45 46 48 52 53 53 51 47 44 44 46 48 50 50 51 53 54 51 48 48 49 49 49 50 50 52 55 58 58 58 59 58 57 55 54 53 52 51 48 47 48
33 30 29 30 32 32 29 25 25 29 32 33 38 42 40 39 41 41 42 42 39 39 42 45 46 48 49 51 53 52 49 47 47 47 48 50 52 55 56 55 53 53 54 55 55 56 56 57 59 60 59 59 60 60 59 58 57 56 55 54 51 50 50
37 35 32 32 32 32 31 28 27 31 34 35 39 43 41 39 39 39 41 41 40 39 40 43 45 46 47 48 49 51 51 50 50 49 49 50 53 55 56 55 55 56 57 59 60 60 60 60 60 59 60 60 60 60 60 61 60 59 58 56 54 53 53
38 40 36 35 34 32 31 29 29 31 34 37 41 43 42 40 38 38 40 41 42 43 42 43 45 45 47 48 48 47 47 47 49 50 49 49 50 52 53 52 52 53 55 57 58 59 60 60 60 60 60 61 60 60 61 62 63 61 59 58 57 57 57
38 43 41 38 36 33 30 30 31 32 34 39 44 44 43 42 41 41 43 44 44 46 47 48 49 49 50 50 49 48 47 47 48 48 50 49 48 50 52 52 53 55 56 57 58 59 59 60 60 60 61 61 62 62 63 64 64 62 60 59 59 59 59
36 44 45 41 38 35 32 31 33 34 35 39 46 47 44 43 45 47 48 47 46 45 46 48 50 52 54 54 53 52 51 50 51 51 53 54 53 55 58 59 61 62 62 61 60 59 59 60 60 62 63 64 64 65 65 64 63 62 61 61 62 62 62
35 42 46 45 41 38 35 34 34 36 37 38 44 48 45 42 45 49 51 50 48 47 45 44 46 49 52 54 55 57 57 57 56 56 57 58 59 61 64 66 67 67 66 66 64 63 62 63 64 65 66 66 66 65 65 64 64 63 63 63 64 65 66
36 41 46 47 45 42 39 37 37 38 40 39 40 43 44 43 44 47 50 51 51 51 49 46 44 46 49 52 54 56 59 60 60 59 60 61 62 64 65 66 66 67 68 67 66 66 65 65 66 66 66 65 65 65 65 65 65 65 65 66 67 68 68
36 40 45 47 47 45 43 41 40 41 42 41 41 42 42 43 44 45 46 49 50 52 53 51 48 46 46 50 53 54 55 57 59 60 61 62 63 64 65 66 67 68 68 66 65 65 65 65 67 67 66 66 66 66 66 66 67 67 67 68 69 70 71
36 40 45 47 48 47 46 44 43 44 45 44 44 44 43 43 44 43 44 46 49 51 53 55 55 53 51 51 51 51 52 54 56 58 59 61 63 65 66 67 68 69 68 66 66 65 65 67 69 69 68 67 67 68 68 68 68 68 69 70 72 72 72
36 41 45 47 48 48 48 46 43 44 48 48 47 47 46 45 45 45 45 46 48 50 52 54 55 56 56 56 55 56 58 59 60 60 60 62 64 67 69 70 70 69 68 68 68 68 68 70 72 71 70 69 69 70 70 70 70 70 71 72 73 73 73
36 41 45 47 49 50 50 49 44 42 45 49 50 50 49 47 48 48 49 49 50 51 52 52 52 53 54 56 57 58 60 61 61 61 61 63 65 68 70 71 71 70 70 71 71 71 70 71 73 72 71 71 71 72 72 72 72 72 72 73 73 74 74
35 40 45 47 50 51 52 52 50 45 43 45 50 52 52 51 50 51 52 53 53 55 55 54 53 52 52 53 54 55 57 58 59 60 61 64 67 69 70 71 72 72 73 73 73 73 72 72 73 73 73 73 73 73 73 73 73 72 73 73 74 75 76
35 39 45 48 50 52 54 54 55 53 47 44 45 49 52 53 53 53 54 55 56 57 58 58 58 57 55 54 54 55 57 59 60 60 62 66 69 69 71 73 74 74 74 74 74 74 74 73 74 74 74 74 74 74 74 74 74 74 74 75 76 77 77
35 38 44 48 49 52 55 56 57 59 56 50 47 46 48 51 52 53 54 55 57 58 59 61 62 62 61 61 61 62 63 65 66 66 67 70 72 72 74 77 77 76 76 77 76 76 75 74 75 75 75 75 75 76 77 77 77 77 77 77 77 77 78
36 37 42 48 50 51 54 56 59 61 62 60 55 51 49 49 51 52 53 54 55 57 59 61 63 63 64 65 66 68 70 71 72 72 72 74 75 76 78 80 80 79 79 78 77 77 76 76 76 76 76 77 77 78 79 79 79 79 78 77 77 78 79

ECMWFFLT1_250_spd_108.txt.gz
Wind_Speed
41 41 40 40 38 38 38 39 39 40 41 44 46 46 47 48 48 48 46 43 41 39 36 36 35 34 32 30 29 29 27 26 27 29 31 32 32 31 30 31 32 33 34 35 34 33 33 33 34 34 34 33 33 32 32 32 33 33 32 32 32 33 35
42 41 41 41 40 40 40 39 38 39 41 44 48 47 47 48 48 48 47 45 43 39 38 37 35 35 34 30 29 29 27 27 29 32 33 33 33 33 33 34 35 36 36 35 34 35 34 34 34 35 35 34 34 34 33 33 33 33 33 33 33 34 35
42 42 42 42 43 43 42 41 40 40 40 42 47 48 45 46 47 48 48 48 46 41 39 36 33 35 34 31 31 30 29 30 30 31 31 31 33 34 34 35 37 38 37 35 35 35 35 35 35 35 36 36 35 36 35 33 33 33 34 35 35 35 35
43 43 44 44 45 45 44 44 44 42 40 40 44 46 44 43 46 48 47 50 51 45 42 39 35 34 33 32 33 33 32 32 30 28 28 31 33 34 35 37 39 39 37 37 36 35 36 36 36 36 36 36 37 37 36 34 34 34 36 36 36 35 35
44 45 47 46 45 45 45 45 46 44 41 40 41 42 38 36 41 47 48 50 54 51 47 46 42 38 34 33 34 35 35 35 32 30 30 33 34 36 37 39 40 38 36 39 38 37 37 36 35 36 36 36 39 39 37 35 34 35 37 38 37 36 35
46 48 49 48 46 46 46 45 45 43 41 39 37 34 30 29 35 45 50 51 54 55 51 51 50 46 40 36 34 34 36 35 34 33 33 35 35 36 37 39 39 37 37 40 40 40 41 37 36 36 37 38 40 40 38 37 36 36 38 38 38 37 36
47 49 51 50 48 47 46 44 43 42 41 38 33 28 29 31 34 42 51 52 52 53 54 54 55 53 47 41 38 36 36 36 35 34 35 35 34 34 35 37 37 38 39 41 43 44 42 39 39 38 38 41 41 41 40 38 37 37 37 38 39 38 38
49 51 51 51 50 48 45 43 41 39 39 37 32 29 31 35 34 37 47 53 52 50 52 54 57 57 51 46 43 41 39 38 37 36 36 36 35 34 36 37 38 39 40 41 43 43 41 43 44 41 41 43 44 44 43 40 37 37 37 38 40 40 39
50 52 52 52 51 48 44 41 39 36 34 35 36 35 35 37 36 36 44 52 52 47 48 53 57 57 53 48 46 45 43 41 39 38 39 40 39 38 38 39 39 40 40 39 41 42 45 49 46 42 42 44 45 45 43 40 38 38 38 39 40 41 40
51 52 53 53 51 48 43 40 37 32 28 31 37 38 36 37 39 40 42 47 49 45 45 51 55 56 54 52 49 47 45 43 42 41 42 42 42 42 42 41 41 41 41 41 44 46 49 48 43 40 42 44 44 44 43 41 40 40 40 40 41 42 42
51 52 53 53 52 48 43 38 33 29 26 30 37 38 36 36 37 38 39 41 45 46 45 48 52 53 53 54 53 48 46 45 44 43 41 40 42 44 45 44 41 41 42 44 45 46 45 43 41 41 43 46 46 45 45 43 42 42 41 41 43 44 44
51 52 53 52 51 48 41 34 30 25 25 33 39 38 37 35 33 35 38 39 41 44 44 45 48 52 53 54 54 51 47 46 45 44 42 40 41 43 45 44 42 41 42 44 44 44 43 42 42 43 45 47 48 49 49 46 43 42 42 43 45 46 46
51 52 53 52 51 46 37 30 26 20 23 33 38 38 37 35 33 35 38 39 39 41 42 42 44 48 51 52 53 52 50 48 47 46 45 44 44 44 45 45 44 44 45 45 45 43 43 44 44 45 47 48 50 51 50 46 44 42 43 45 46 48 48
51 52 52 51 50 43 32 25 20 16 19 26 33 36 37 37 37 39 38 38 38 38 39 41 43 45 48 50 51 52 52 52 50 49 48 47 46 47 47 47 46 46 46 46 45 43 43 44 45 46 47 48 50 50 49 47 45 45 46 47 48 50 50
51 52 51 50 48 40 27 18 14 12 14 19 27 34 38 39 40 42 41 38 38 37 37 41 45 47 50 52 53 54 54 54 53 52 50 48 47 47 49 49 48 47 47 48 47 46 45 45 46 47 48 48 49 50 50 48 47 46 47 48 49 50 50
50 51 50 48 46 37 24 16 13 11 11 16 25 33 38 42 43 44 43 41 41 41 40 41 43 45 51 55 56 57 58 58 58 56 51 48 47 47 48 48 48 49 50 51 50 49 48 48 48 48 48 49 49 49 49 48 48 48 49 50 51 50 48
50 50 49 47 44 36 23 17 16 12 12 17 24 31 35 40 42 41 42 43 43 44 43 41 41 41 46 52 56 59 60 60 61 58 52 47 46 45 45 45 46 48 50 51 51 50 50 50 50 50 49 50 51 50 50 50 50 51 51 50 50 49 47
50 49 47 45 42 35 25 19 18 15 14 17 22 28 31 36 40 40 39 40 43 45 43 41 41 39 38 44 50 56 60 61 62 59 52 46 45 44 43 44 46 46 47 48 49 50 49 49 50 50 48 50 51 52 53 53 52 51 50 50 49 47 47
49 48 46 44 41 35 26 21 20 16 15 17 20 25 31 35 39 41 39 38 41 46 43 41 42 40 37 39 42 47 54 60 62 61 55 50 50 50 49 48 48 47 46 46 46 47 47 48 49 50 49 50 52 53 54 53 51 50 50 50 50 49 50
49 47 45 43 40 35 27 22 22 19 17 18 19 22 29 35 39 40 39 39 43 46 43 40 41 42 42 42 43 44 48 53 58 60 59 55 55 56 54 51 50 48 47 46 45 47 49 49 49 50 50 51 52 54 55 53 51 51 51 51 52 52 54
49 47 45 42 39 35 29 24 25 24 21 21 21 22 26 31 35 38 38 40 45 47 44 40 38 39 41 43 45 47 49 51 53 55 57 57 57 58 56 53 50 48 48 47 47 49 52 52 51 52 52 53 53 54 54 53 52 52 52 52 54 56 57
48 47 45 42 38 34 30 26 28 29 25 23 25 26 28 29 32 37 39 41 45 48 48 43 38 37 36 35 37 42 45 48 51 53 55 56 56 56 55 54 50 47 47 49 49 51 53 55 54 53 53 53 52 52 52 53 54 55 55 56 57 59 59
49 47 45 42 38 34 31 28 30 32 27 24 27 29 31 31 33 37 39 40 43 47 49 46 40 37 34 32 33 35 37 40 44 48 51 54 56 56 55 53 51 49 49 52 54 55 56 56 55 54 53 52 51 51 52 55 58 59 59 59 58 58 59
48 47 46 43 38 34 32 30 32 34 30 26 27 31 32 33 33 35 37 39 41 45 50 49 44 40 38 37 37 36 35 36 38 40 43 46 49 51 51 50 50 49 51 55 59 58 57 56 55 55 54 53 53 54 55 57 59 59 59 59 58 58 59
49 47 46 44 39 35 32 32 33 35 35 30 28 32 34 36 36 35 37 38 40 44 49 50 47 44 43 44 44 44 44 43 42 42 42 43 44 46 48 48 49 49 51 56 60 59 57 56 56 56 56 57 57 56 56 57 58 58 58 58 58 59 60
49 47 47 45 40 36 33 33 35 37 38 35 32 33 37 40 39 38 38 39 41 45 48 49 48 46 45 45 47 49 52 52 52 50 48 47 48 48 50 50 51 51 53 56 58 56 55 55 56 57 58 57 57 56 57 58 59 59 59 58 58 59 61
49 48 47 45 41 37 34 34 37 38 39 40 38 37 39 43 43 42 41 41 43 46 48 49 49 48 46 44 45 48 51 53 54 53 51 50 51 51 51 51 53 54 55 56 55 53 52 52 53 54 55 56 57 58 59 60 61 61 61 61 62 63 64
49 48 48 46 42 39 36 34 38 41 41 41 42 42 42 45 46 45 44 43 43 44 45 46 47 48 47 45 44 46 48 50 51 52 53 53 53 52 51 50 53 55 56 56 54 52 52 53 54 56 58 59 60 61 62 64 65 65 65 66 66 66 66
49 49 49 47 43 40 37 35 37 42 44 43 44 45 46 46 47 48 48 47 45 44 44 45 46 47 48 47 46 46 45 45 47 50 52 53 53 52 51 50 53 56 59 59 56 55 55 57 58 60 62 63 64 66 68 70 70 69 68 68 68 68 68
49 50 49 47 43 41 39 36 36 42 47 46 45 47 49 48 47 48 49 49 48 47 46 47 48 48 48 49 49 49 47 45 44 46 49 51 52 53 53 53 54 56 60 62 60 59 60 61 62 64 65 67 69 71 71 71 70 69 68 68 69 70 70
50 50 49 47 44 41 40 38 37 41 48 49 47 47 50 50 49 49 50 51 51 51 51 51 50 50 51 51 51 52 51 49 47 46 47 49 51 53 55 55 54 55 59 62 61 61 63 64 66 67 69 70 71 72 71 70 69 69 69 70 71 71 72
51 50 49 47 44 42 40 39 39 40 46 51 51 49 50 52 50 49 51 53 54 54 54 55 54 54 54 54 54 54 53 52 52 49 47 48 51 54 56 56 56 58 61 62 63 63 64 66 68 70 71 72 72 71 71 71 71 71 72 73 73 72 73
52 50 49 47 45 43 40 39 40 41 45 52 54 52 52 53 52 50 51 54 55 54 54 56 57 58 58 58 57 56 55 55 55 54 52 52 53 54 55 57 58 61 62 63 63 64 66 68 70 71 72 73 72 72 73 74 74 75 75 75 74 74 75
52 50 49 48 46 43 41 40 41 42 44 51 56 56 55 54 54 53 51 53 55 56 55 56 57 58 59 60 60 60 60 59 59 59 59 59 58 57 57 59 61 62 63 64 65 66 67 70 72 72 73 74 75 76 77 78 78 77 77 77 76 77 77
51 50 49 48 46 44 41 39 41 43 45 50 56 58 58 57 57 57 55 54 55 56 57 57 57 57 58 60 60 62 63 64 64 64 65 65 64 63 63 64 66 67 67 69 70 70 71 72 73 74 76 78 79 80 81 81 80 79 79 79 78 79 79
51 50 49 48 46 44 41 39 41 44 46 50 55 59 60 58 58 59 60 58 57 58 58 58 59 60 60 60 60 60 61 64 66 67 68 69 69 69 70 73 74 75 75 75 76 76 77 77 77 78 80 81 81 82 82 81 81 80 80 80 81 81 82
51 50 49 47 45 42 40 39 41 44 47 51 56 60 61 60 58 59 62 62 61 61 61 61 61 61 62 62 62 62 62 62 63 65 66 68 71 73 76 78 79 79 80 81 81 81 82 81 80 80 81 82 82 82 83 83 83 83 83 84 85 85 85

ECMWFFLT1_250_spd_111.txt.gz
Wind_Speed
47 48 50 52 51 51 50 48 47 46 45 43 42 38 34 31 28 25 27 27 28 31 36 38 37 34 34 34 34 34 34 35 35 31 28 29 31 30 30 32 33 32 30 29 29 29 28 28 28 28 27 28 29 28 28 30 32 30 28 28 30 31 31
47 49 51 52 52 51 50 49 48 46 44 39 35 32 28 28 31 32 32 32 30 29 32 35 34 33 35 35 33 33 35 36 36 33 30 31 30 30 31 33 34 35 33 32 30 30 30 30 29 29 28 29 30 30 30 30 31 30 29 30 32 33 32
48 49 51 52 52 52 51 50 48 46 43 34 28 32 33 33 35 37 38 39 37 31 28 30 32 33 36 36 34 34 36 37 38 35 32 32 30 30 32 33 34 34 33 33 32 31 31 31 32 32 30 30 30 31 31 31 30 31 32 32 33 34 33
49 50 52 52 53 52 52 51 49 48 45 34 28 34 39 39 38 39 39 39 38 32 26 27 32 35 36 35 34 36 38 39 39 36 33 33 32 31 32 34 34 34 34 34 33 32 32 33 35 34 32 32 32 31 32 33 33 34 34 34 35 35 34
50 51 52 53 53 53 53 53 50 50 49 42 35 35 38 40 40 40 40 40 38 32 28 29 33 36 36 34 33 35 38 40 39 37 34 34 32 31 32 33 34 35 35 35 34 34 34 36 37 35 33 33 33 33 34 36 38 38 37 35 35 36 35
50 51 52 53 54 54 54 54 52 52 53 49 43 37 35 37 41 42 42 42 39 33 32 33 33 36 37 34 33 33 35 38 39 38 36 35 32 31 31 33 34 35 35 35 36 36 36 38 37 34 33 34 34 35 37 38 40 40 39 36 35 37 38
50 51 52 53 54 54 54 54 54 55 56 54 47 40 36 36 40 42 40 40 37 34 36 35 34 37 37 35 33 32 33 35 36 38 38 37 35 34 33 33 35 36 36 36 37 37 37 37 36 34 34 34 35 37 40 41 41 42 41 37 36 38 38
50 51 51 52 54 54 54 54 55 57 58 56 50 43 37 36 41 42 38 38 39 38 37 34 32 36 39 37 34 33 32 32 32 36 38 39 38 38 37 36 36 36 36 36 36 37 37 36 35 35 34 34 37 40 43 42 42 44 42 37 37 38 37
50 51 51 52 53 53 53 54 56 58 59 58 54 47 39 36 41 42 38 39 41 41 40 35 32 35 39 40 38 36 36 34 32 34 37 39 40 40 40 39 38 37 36 34 34 35 36 35 34 35 35 37 40 42 43 43 44 44 40 36 37 39 40
50 51 50 51 52 52 52 53 55 58 59 57 55 49 39 34 37 40 39 40 43 43 42 38 35 36 38 40 41 40 39 38 36 36 38 40 41 42 42 42 40 39 37 35 35 35 35 35 36 37 39 40 41 43 44 44 45 43 38 36 39 42 42
50 50 50 50 51 51 52 53 54 57 58 56 54 47 38 31 33 40 43 43 45 46 44 42 39 38 38 39 41 42 41 41 41 40 39 40 42 44 45 44 42 41 39 37 37 37 37 38 39 40 41 42 43 44 45 46 45 42 38 37 40 43 44
50 50 49 49 50 50 51 52 54 56 56 54 49 43 36 30 29 39 45 44 45 47 45 44 42 39 36 37 39 41 42 43 44 44 43 42 41 43 45 45 43 41 40 40 39 39 39 39 39 40 41 42 43 45 46 46 44 42 39 38 41 44 45
49 49 49 49 49 50 51 52 53 54 55 52 43 38 34 28 26 35 43 41 41 43 43 44 44 38 34 36 38 40 43 45 45 46 46 46 44 44 45 44 42 41 41 40 40 40 40 40 41 43 43 44 45 47 47 45 43 42 41 41 43 44 45
49 49 48 48 48 49 50 51 52 53 53 50 38 33 32 27 24 31 38 37 36 40 41 42 43 40 37 38 39 40 41 44 44 43 45 48 48 46 46 45 42 41 41 40 40 41 41 43 45 46 46 46 47 48 47 45 44 44 43 42 44 45 45
49 48 48 48 48 49 49 50 51 51 52 48 36 30 31 26 23 30 35 34 35 39 40 40 41 41 41 41 40 38 39 42 42 40 40 44 47 47 47 45 43 42 41 39 39 40 42 45 47 47 47 48 49 48 47 46 46 45 44 44 45 46 45
48 48 48 47 47 48 49 49 49 49 50 46 34 28 29 25 23 31 35 34 34 36 39 40 40 41 43 41 39 38 38 40 41 40 40 42 45 46 47 46 45 44 43 40 39 40 43 46 47 47 48 50 50 49 49 50 49 47 46 47 48 48 47
48 48 48 47 47 48 48 48 48 48 47 44 33 26 27 25 23 33 36 34 34 35 37 40 40 41 42 41 40 38 36 36 38 41 43 45 46 48 49 49 48 47 46 44 42 43 45 46 46 47 49 50 52 52 52 53 53 51 50 51 51 50 49
49 48 48 47 47 47 47 47 47 47 45 41 31 26 26 24 22 33 38 36 36 37 39 40 41 42 41 41 41 40 37 36 38 40 42 45 47 49 51 52 52 50 49 47 45 45 46 46 45 47 48 50 53 54 53 54 54 53 52 52 51 49 49
49 49 48 47 47 47 47 46 46 46 44 39 30 25 25 23 23 29 36 37 36 37 40 41 42 42 42 42 42 41 39 40 41 42 43 45 47 49 51 53 54 53 51 49 47 45 44 44 46 47 48 51 52 53 52 52 53 52 52 51 49 47 49
49 49 47 47 46 46 46 46 45 45 43 39 30 26 25 24 25 27 32 36 37 37 39 41 42 43 43 42 40 39 39 41 42 43 44 46 48 50 51 53 53 53 53 51 50 48 46 47 49 51 52 53 52 51 51 51 51 51 51 52 50 47 50
48 48 47 46 46 46 45 45 45 44 43 38 30 26 26 26 27 28 30 34 37 37 38 39 40 42 43 42 41 39 39 40 41 40 40 42 44 46 48 49 50 53 54 54 53 53 52 51 53 55 56 55 54 53 51 51 52 52 52 53 53 51 51
48 48 47 46 46 45 45 44 44 43 42 39 31 27 29 29 30 31 31 34 36 37 38 39 39 41 43 43 44 43 41 40 39 38 37 38 39 41 44 45 47 50 52 53 54 56 57 56 56 57 58 57 57 57 54 52 54 54 53 55 56 55 52
47 47 47 46 45 45 44 43 43 43 41 39 33 27 30 32 32 33 34 35 37 37 39 41 41 42 44 45 46 46 45 43 41 39 39 38 38 41 44 44 46 49 49 50 51 53 55 55 54 54 54 55 56 57 55 54 54 54 56 58 58 57 54
47 47 46 46 45 44 44 43 43 43 41 39 35 29 30 35 34 34 35 36 39 40 40 41 43 44 46 47 48 49 49 47 45 44 43 42 42 43 44 44 47 50 50 49 49 50 51 52 52 51 52 53 54 55 55 55 55 55 57 58 57 57 55
47 46 46 45 44 44 43 43 43 42 41 39 36 31 30 36 37 35 35 36 39 42 43 42 44 45 47 48 49 50 51 49 47 46 45 44 44 44 44 44 46 48 48 48 48 49 50 51 52 53 53 52 54 55 56 57 57 56 56 56 55 56 56
46 46 45 44 44 43 43 43 43 42 41 39 37 33 30 35 40 38 37 38 39 41 43 44 44 45 47 48 49 51 52 50 48 46 45 45 44 43 43 44 45 46 46 46 46 48 49 50 52 54 53 52 53 56 57 57 57 56 55 54 54 56 56
45 44 44 44 43 43 43 43 43 42 42 40 38 35 31 33 41 42 39 39 41 42 44 45 45 46 46 48 50 52 53 53 51 47 46 46 45 43 42 43 44 46 46 46 47 48 49 50 53 56 56 55 56 57 58 58 59 56 53 53 55 57 58
44 43 43 43 43 43 43 43 43 42 42 41 39 36 33 32 39 45 43 41 42 44 45 46 46 46 46 48 51 52 54 55 53 49 49 50 50 47 45 44 45 46 47 47 48 50 52 54 57 59 60 60 59 59 60 61 60 58 54 54 57 59 60
43 43 43 43 43 43 43 43 43 43 42 42 40 37 35 33 36 44 47 44 42 44 47 47 47 47 47 49 50 52 54 55 54 50 50 52 54 54 52 51 51 50 51 52 54 55 57 59 61 63 63 62 61 61 61 61 61 60 58 58 60 62 64
43 43 43 43 43 43 43 43 44 43 43 43 41 38 36 35 35 41 48 48 45 45 47 49 49 48 49 50 51 51 53 55 56 55 53 53 54 56 56 56 54 53 53 54 55 57 58 60 63 64 64 63 62 61 61 61 61 60 59 60 62 65 67
43 43 43 43 43 44 44 44 44 44 44 43 41 39 37 36 36 39 46 50 49 47 49 51 52 51 51 52 52 52 53 54 56 57 56 54 54 54 53 53 52 51 50 50 51 54 56 59 63 64 63 62 62 61 61 61 61 61 61 63 66 68 70
44 44 44 44 44 44 45 45 45 45 45 44 42 40 38 37 37 39 44 49 51 51 51 52 54 54 54 53 54 54 54 54 55 57 57 56 55 53 52 52 51 50 49 48 49 51 53 56 60 62 61 61 62 63 63 62 62 63 65 67 69 71 73
45 45 45 45 45 45 45 45 45 46 46 45 42 40 39 39 38 40 43 49 52 53 53 54 55 56 56 56 56 57 57 56 56 57 58 58 57 56 55 55 54 53 52 51 52 53 54 56 59 60 61 61 62 63 64 65 65 67 69 70 72 74 75
46 45 45 45 45 45 45 45 46 46 46 46 44 42 40 40 40 40 43 48 52 54 55 56 56 57 57 58 58 59 59 59 58 59 60 60 61 60 60 60 59 59 58 57 57 57 58 59 62 64 66 66 65 65 66 67 68 70 72 74 76 77 77
46 46 46 46 46 46 45 46 46 47 47 46 45 43 42 41 41 41 43 48 53 56 57 58 58 58 58 58 59 60 61 61 61 61 61 62 63 63 63 63 63 63 63 62 62 62 62 63 65 67 69 70 71 72 73 73 73 75 77 78 79 79 80
47 47 46 46 46 46 46 46 47 47 47 47 46 45 44 43 42 43 44 48 53 57 59 60 60 60 59 58 59 60 62 63 64 63 63 63 63 64 64 64 64 64 65 65 66 68 69 69 70 72 74 75 76 78 78 77 77 78 79 79 80 81 81
47 47 47 47 47 47 47 47 48 48 48 47 47 46 45 44 44 44 45 48 53 58 61 62 63 63 62 61 60 60 61 63 65 66 65 64 64 64 65 65 65 65 65 66 68 70 72 73 75 76 78 80 81 81 82 81 80 80 81 82 82 83 83

ECMWFFLT1_250_spd_114.txt.gz
Wind_Speed
45 45 45 44 43 43 43 42 42 40 39 41 42 41 44 45 45 45 45 45 45 43 38 36 35 36 35 31 27 28 38 43 42 39 38 38 38 39 39 38 36 34 32 31 30 29 28 28 27 26 27 26 23 22 22 21 20 20 20 21 22 23 25
45 45 45 45 44 43 43 43 43 42 40 40 43 46 47 48 48 48 47 47 49 48 44 40 38 36 36 35 30 27 34 38 39 40 38 36 36 37 38 37 36 35 33 32 30 30 31 30 28 27 28 29 26 25 25 24 23 22 21 21 22 24 27
46 45 45 45 45 44 44 44 44 44 43 44 46 48 50 50 50 50 51 50 49 49 50 48 44 40 40 41 35 29 34 37 38 40 38 34 34 36 37 36 36 36 35 34 33 34 34 33 32 29 29 30 29 28 28 28 26 25 23 22 22 24 28
48 47 45 44 45 45 44 44 44 45 45 46 48 49 51 53 52 51 53 54 51 47 49 50 48 45 43 41 35 30 34 37 39 42 39 34 34 36 37 36 37 37 36 36 37 38 37 36 36 33 31 31 30 30 30 30 30 28 25 24 23 24 28
49 49 47 45 45 44 44 45 46 46 46 47 48 49 52 54 54 53 54 56 54 47 46 46 45 45 43 38 33 30 34 37 39 43 41 37 36 38 39 37 38 39 38 38 40 40 39 38 37 35 32 30 30 30 31 32 32 30 28 26 24 25 28
49 51 50 48 47 46 46 46 46 47 46 47 49 50 52 54 54 54 56 58 55 47 43 41 40 43 42 37 33 31 34 36 39 42 42 39 37 38 40 39 39 40 39 39 39 40 38 36 35 33 31 30 31 32 33 34 33 32 30 27 25 25 28
47 50 51 50 49 48 48 47 47 47 47 48 49 49 52 54 53 54 57 59 56 48 41 38 37 41 42 40 36 34 35 36 37 40 42 41 38 37 39 39 39 39 39 38 37 37 36 35 33 31 31 32 34 35 35 35 34 34 32 29 27 26 28
44 46 47 48 48 48 48 47 46 46 47 48 48 50 52 52 52 54 57 59 56 48 39 35 36 39 42 42 39 36 37 37 37 38 41 42 40 37 36 36 37 39 39 38 37 36 36 35 33 33 35 36 37 37 36 35 35 34 33 30 28 28 30
43 43 44 44 45 46 46 46 46 46 47 48 48 50 52 52 52 55 57 58 54 45 37 33 35 38 41 42 40 37 38 39 39 39 40 42 42 38 36 34 36 40 41 39 37 37 36 36 36 37 39 39 39 38 38 37 36 35 33 31 30 31 33
42 42 42 42 43 44 45 45 45 45 46 48 48 49 51 52 52 55 57 57 51 42 36 32 35 38 39 40 39 38 37 37 39 39 39 41 42 40 38 36 34 38 41 40 38 37 37 39 40 40 41 41 40 40 39 38 36 35 35 34 34 35 35
41 41 41 42 43 44 44 44 44 45 46 47 47 48 50 51 52 54 57 56 48 41 36 31 34 38 39 39 38 38 37 36 37 38 38 39 40 39 38 36 34 35 38 40 40 38 38 40 41 41 41 40 39 38 37 36 36 37 39 38 38 38 38
41 40 41 42 43 44 44 44 44 45 46 47 47 48 49 50 51 53 55 54 46 39 35 30 33 38 39 38 37 38 38 37 38 37 37 36 36 36 36 36 36 36 36 37 40 39 39 40 41 40 39 36 36 37 37 38 40 41 41 40 40 40 39
41 40 41 42 43 44 44 44 44 45 46 46 46 47 48 49 50 51 54 52 44 38 33 28 33 37 39 39 39 40 41 40 40 39 38 37 36 36 36 36 37 38 38 38 39 39 40 41 39 38 37 36 37 39 40 41 42 42 42 41 40 40 39
42 41 41 42 42 43 44 44 45 45 46 46 46 46 47 48 49 49 51 49 42 37 29 26 33 36 39 40 40 41 41 41 40 40 40 39 38 38 37 37 38 40 41 40 38 37 39 40 39 39 38 39 41 42 42 42 42 42 44 43 41 41 41
41 41 42 42 43 43 44 44 45 45 46 45 45 46 46 47 48 48 49 45 39 36 26 26 33 34 38 40 41 43 42 40 39 39 40 40 40 41 41 40 40 42 44 43 40 38 38 38 39 40 41 42 43 43 43 43 43 45 47 45 44 44 44
41 41 42 43 43 44 44 44 44 45 45 45 44 45 45 46 46 46 47 42 35 32 23 26 33 34 36 39 41 43 43 42 40 39 40 39 38 39 41 43 44 44 44 44 43 41 40 40 41 42 43 43 43 43 43 44 45 46 48 47 45 45 45
41 41 42 43 43 43 43 43 44 45 45 44 44 44 44 45 45 44 44 39 32 26 20 26 33 34 36 38 39 39 38 40 40 40 40 38 35 34 36 41 45 46 46 45 45 45 45 45 45 44 43 42 41 41 43 43 44 46 48 48 46 45 46
41 41 41 42 43 42 42 43 43 44 44 43 42 42 43 43 43 42 41 37 30 21 20 25 29 32 34 35 36 36 36 38 39 39 38 37 37 36 36 38 42 46 47 47 47 48 49 48 47 45 44 43 42 42 44 44 45 47 49 50 49 48 46
41 40 41 42 42 42 42 42 43 43 43 42 41 41 41 42 41 40 39 35 28 21 23 27 28 30 32 33 34 35 38 39 38 38 37 38 40 41 41 41 42 43 45 46 46 47 48 48 48 46 44 43 43 44 46 46 46 48 50 51 52 51 48
39 40 40 41 41 41 41 42 42 42 42 41 40 40 40 40 40 39 37 34 28 22 25 30 31 30 32 34 35 37 40 40 38 38 39 39 40 40 40 41 42 42 43 45 46 46 46 47 48 48 46 45 45 46 47 49 49 50 51 52 53 53 51
38 39 40 41 41 41 41 42 42 42 41 40 40 39 39 39 39 37 36 33 28 24 27 32 34 33 32 34 34 36 42 43 40 41 41 41 43 41 40 41 43 43 43 44 45 46 47 48 49 49 49 50 50 50 51 53 54 55 56 56 54 54 54
40 40 40 41 41 41 42 42 41 41 40 39 39 39 39 38 38 36 34 32 29 27 28 32 36 36 35 35 35 36 42 44 44 44 43 44 46 45 42 42 43 44 45 45 45 47 48 48 49 50 52 53 53 53 54 56 56 57 58 57 55 54 54
42 42 41 41 41 41 42 42 41 40 39 39 38 38 38 38 37 36 34 32 30 29 29 32 36 38 37 38 39 40 42 44 46 47 46 46 48 48 47 45 43 43 45 47 49 50 51 51 51 51 52 53 54 55 55 56 55 55 55 55 54 53 53
44 43 43 42 42 42 41 41 41 40 39 38 38 38 38 37 37 37 34 31 30 30 31 33 36 38 39 40 43 44 45 45 48 49 49 48 49 50 50 50 48 47 47 49 50 50 51 53 53 53 53 52 53 54 54 54 54 54 54 54 54 53 54
44 43 44 43 42 42 41 41 40 39 38 38 38 38 38 37 37 36 35 32 30 30 32 35 37 39 41 43 45 47 48 48 50 51 51 51 51 51 50 51 51 50 48 47 47 47 48 50 52 53 52 51 51 52 52 52 53 53 53 54 54 55 55
44 43 44 44 43 42 41 40 40 39 38 37 38 38 38 37 37 36 36 34 31 30 31 35 38 40 43 44 46 49 51 51 51 51 51 51 53 53 52 51 50 49 47 46 46 46 47 48 50 51 51 51 51 52 52 53 53 54 54 55 56 56 56
43 43 43 43 43 42 40 40 39 38 38 37 37 38 38 37 37 36 36 35 32 30 31 35 40 42 44 46 47 48 51 53 53 52 51 51 52 54 55 53 50 48 47 47 47 47 47 48 49 50 51 51 52 53 54 55 55 55 56 57 58 58 57
44 42 41 41 42 41 40 39 39 39 38 37 37 37 38 38 37 37 37 36 34 31 31 34 40 44 46 47 48 49 50 52 54 54 53 52 52 53 55 55 53 51 49 48 47 47 46 46 47 49 50 51 52 53 55 56 55 56 57 58 59 60 59
44 43 42 42 41 40 39 39 39 39 39 38 38 37 37 38 38 38 38 37 35 33 32 33 38 44 48 48 50 52 52 53 54 55 55 54 54 54 55 55 54 54 53 52 50 47 45 44 45 47 48 49 52 53 54 55 56 56 57 58 60 63 62
46 46 46 45 43 41 40 39 39 39 39 39 39 38 38 39 39 39 38 38 37 34 33 34 36 42 48 50 50 52 54 54 55 56 56 56 56 56 56 56 55 54 54 54 53 52 50 48 48 50 50 51 53 54 55 57 57 58 58 58 60 62 63
47 47 46 45 44 42 41 40 40 40 40 40 40 40 40 40 40 40 39 39 38 36 34 35 36 40 45 50 51 51 52 54 55 57 58 58 58 57 57 57 57 56 55 54 54 55 55 54 54 55 56 56 57 58 59 60 60 60 60 59 59 61 62
45 44 44 43 44 43 42 41 41 41 41 41 41 41 41 41 41 41 40 40 39 38 36 36 37 39 42 48 52 52 52 52 54 56 57 58 59 59 58 58 59 59 58 58 58 57 57 57 57 57 58 58 59 59 59 60 60 60 61 60 60 61 63
46 45 44 43 43 43 43 42 42 42 42 42 42 42 42 42 42 42 41 41 40 39 38 37 38 39 41 45 51 54 54 53 53 55 57 58 58 59 59 60 62 62 62 63 62 61 60 59 59 59 59 59 59 60 60 60 60 60 60 61 61 63 64
48 48 47 45 44 44 44 43 43 43 42 42 42 43 43 43 43 42 42 42 41 41 40 39 39 40 41 43 48 53 56 55 55 55 57 58 59 60 60 61 63 64 65 65 64 64 63 62 61 61 61 62 62 63 63 63 62 62 62 63 65 67 68
50 50 50 48 46 45 44 44 43 43 43 43 43 43 44 44 44 43 43 43 43 42 41 40 40 41 41 43 46 50 55 57 57 57 58 59 60 61 62 63 64 65 66 66 65 65 65 64 64 63 63 63 64 65 65 65 65 64 65 66 68 71 72
53 53 51 49 46 45 45 44 44 44 44 44 44 44 44 44 45 45 44 44 44 44 43 42 41 42 42 43 46 49 53 57 59 60 60 61 61 61 62 63 65 67 67 67 66 66 66 67 66 66 65 65 65 66 67 67 67 67 68 69 71 73 75
54 52 49 47 45 45 45 45 45 45 45 45 45 45 45 45 46 46 46 46 46 45 44 44 43 43 44 45 46 49 52 57 60 61 61 62 63 63 63 63 65 67 69 70 69 68 68 68 68 69 69 69 70 70 71 71 72 73 74 75 76 78 79

ECMWFFLT1_250_spd_117.txt.gz
Wind_Speed
50 51 51 50 49 48 47 46 45 44 43 44 44 45 46 45 44 43 42 44 45 46 46 48 49 50 50 49 48 48 47 45 46 46 38 31 35 45 43 38 40 42 41 40 41 42 41 39 38 36 33 28 28 29 27 25 23 23 23 23 21 22 23
46 46 46 47 46 45 45 46 47 46 45 45 45 45 47 46 45 44 45 46 47 47 47 48 49 49 51 51 49 48 48 47 46 48 44 34 32 40 45 40 38 41 41 41 42 42 42 40 39 38 35 30 29 31 29 27 26 26 26 25 26 27 27
40 41 41 41 42 42 42 44 46 47 47 47 46 46 46 46 46 46 46 47 48 48 48 49 50 50 51 52 51 48 47 46 45 46 47 39 32 34 41 39 38 39 40 41 42 42 42 41 39 38 36 32 31 32 30 29 27 27 27 27 29 30 30
37 38 39 40 39 39 39 41 44 46 47 47 47 47 47 47 46 46 47 48 49 49 50 51 51 51 52 52 52 48 44 43 42 44 47 42 34 33 38 37 37 38 40 41 42 43 43 41 39 38 36 35 33 33 32 30 29 29 29 30 32 32 32
37 38 39 39 40 40 40 41 43 45 46 47 47 48 48 48 47 46 47 47 48 49 49 52 52 53 53 52 51 47 41 39 39 41 45 43 35 35 40 37 37 39 40 41 42 43 43 42 40 39 38 37 35 33 33 33 33 32 31 32 32 31 33
38 38 38 39 39 40 40 41 43 44 46 47 47 48 48 47 47 47 47 47 47 48 49 51 53 53 53 52 50 45 39 36 37 38 42 41 36 38 41 39 39 40 40 40 40 40 40 40 40 40 40 39 36 35 36 37 36 34 33 32 31 32 34
39 39 39 39 39 38 39 40 41 43 44 45 46 46 46 46 46 46 46 47 47 47 49 51 53 53 52 52 49 43 37 34 35 37 39 39 36 39 42 40 39 39 38 38 37 37 37 38 40 41 41 40 38 38 39 40 39 37 34 31 31 34 36
40 40 41 41 40 39 39 38 39 41 42 43 43 43 43 43 44 45 45 46 47 47 48 50 52 52 52 51 47 41 36 33 35 36 36 35 34 39 44 41 39 37 36 37 36 36 36 37 39 41 41 41 41 41 42 42 41 39 35 32 33 37 38
41 42 42 42 42 41 40 39 39 40 40 41 41 41 42 42 43 44 45 46 46 47 48 50 52 52 52 49 44 39 34 31 34 35 35 33 32 38 44 43 40 37 35 35 35 35 34 34 37 40 42 43 43 43 43 43 42 40 37 35 37 38 38
41 43 44 44 44 43 42 41 41 40 40 40 40 41 41 42 42 43 44 44 45 46 47 49 51 51 51 48 42 37 31 30 34 35 34 32 31 37 42 43 42 39 35 35 35 35 34 34 35 38 42 43 44 44 43 43 43 41 38 38 39 40 40
41 43 44 45 45 44 42 41 41 40 40 40 40 40 41 42 42 43 43 43 43 44 46 48 49 51 50 45 40 33 26 29 33 34 33 31 32 37 40 41 42 40 37 35 36 37 37 37 37 37 39 41 42 43 43 44 43 41 40 42 43 43 43
41 42 43 43 43 43 42 41 40 40 40 40 40 40 41 41 42 42 42 42 42 42 44 46 48 49 47 42 35 26 21 29 33 33 32 31 33 37 39 39 41 41 39 37 37 38 39 39 38 37 37 39 41 43 43 44 43 42 44 45 44 43 41
41 41 41 41 41 41 41 41 40 40 40 40 40 40 40 41 41 41 41 41 40 41 42 43 46 46 44 38 28 18 20 28 32 32 31 31 33 38 39 38 39 41 42 40 39 40 39 38 37 37 38 40 41 42 43 44 44 45 46 46 45 43 40
40 40 40 41 40 40 40 40 41 40 40 40 40 41 41 41 41 40 40 40 39 39 40 41 43 43 40 32 20 15 19 27 31 31 30 30 31 35 37 38 38 40 42 42 42 42 41 38 36 37 40 42 43 44 44 44 45 47 48 47 45 42 41
37 38 39 40 40 40 40 40 41 41 40 40 40 41 41 41 40 39 39 38 38 38 37 38 39 39 36 26 15 16 21 26 30 30 30 30 30 32 34 36 38 39 39 40 41 42 41 39 37 37 40 43 45 45 45 45 46 47 48 48 45 41 42
36 38 38 38 38 39 40 41 41 41 41 40 40 40 40 40 39 38 37 37 37 36 35 35 36 35 31 22 15 18 23 27 30 31 31 32 33 33 34 35 37 38 38 37 38 39 39 38 39 39 40 42 43 42 43 44 45 46 46 46 46 44 45
39 39 39 39 38 38 39 40 41 41 41 40 40 40 40 39 38 37 36 35 35 35 33 33 33 32 27 20 17 20 24 28 30 31 32 34 35 34 33 34 36 37 38 39 39 39 39 40 41 40 41 43 43 42 42 43 44 45 45 46 47 46 46
40 39 39 39 38 38 39 40 41 41 41 40 40 40 39 38 37 36 35 34 34 33 32 31 30 28 24 20 20 22 24 28 31 33 34 36 36 35 32 32 35 38 40 40 41 41 41 43 43 43 43 45 45 44 44 45 45 47 48 49 48 45 45
41 40 39 39 39 38 38 39 40 40 40 40 39 39 38 38 37 35 34 34 33 32 31 30 28 26 23 21 22 23 24 27 31 34 36 37 37 36 34 33 34 38 41 43 44 43 43 44 44 44 45 47 48 48 48 48 48 49 50 50 47 44 46
42 41 41 41 40 39 39 38 39 39 40 40 39 38 38 37 36 35 33 33 32 31 30 29 28 25 22 22 25 25 26 29 31 33 36 38 39 39 39 37 35 37 39 42 44 46 46 46 44 43 43 44 46 48 49 50 51 51 50 48 46 46 48
43 43 44 44 44 43 42 41 41 41 41 40 40 39 38 37 35 34 33 32 31 30 30 29 27 25 22 22 27 28 28 30 33 34 36 39 41 42 42 42 39 38 40 41 43 45 46 46 46 46 45 45 46 46 47 49 50 50 49 48 48 49 50
44 45 46 47 46 46 45 44 44 44 43 42 41 39 38 37 35 34 33 32 31 30 30 29 27 25 23 22 27 31 31 31 33 36 39 40 41 43 44 44 43 41 42 43 44 45 45 45 47 48 48 48 48 47 47 48 49 49 50 51 52 53 54
46 47 48 49 48 48 48 47 46 45 45 44 42 40 39 37 36 34 33 33 32 30 30 30 28 26 24 23 26 32 34 34 34 36 41 42 42 43 45 46 46 45 44 45 45 44 44 45 47 47 48 49 50 50 50 50 50 51 52 53 54 55 55
47 48 49 50 50 51 50 49 47 46 45 44 43 41 39 38 36 34 33 33 33 31 31 31 29 27 26 25 26 31 35 38 37 37 41 43 44 45 47 47 47 47 46 47 46 45 44 46 47 46 47 49 51 52 53 53 53 54 54 54 54 54 54
48 49 49 50 52 52 50 48 47 45 44 43 42 41 39 38 37 35 34 33 33 33 32 31 30 29 27 26 26 30 35 39 40 40 41 44 45 47 49 50 50 49 49 49 49 48 47 48 49 48 47 49 50 51 52 53 53 54 55 54 54 54 54
49 49 49 50 51 50 47 46 44 43 42 41 41 40 39 38 37 35 34 34 34 34 33 32 32 30 29 28 27 29 34 39 42 43 43 44 46 48 50 52 52 52 51 51 52 52 52 52 53 53 53 54 54 54 56 56 56 55 55 55 55 55 55
49 49 48 49 48 45 43 43 43 42 41 41 40 40 39 38 38 36 35 34 35 35 35 34 33 32 31 30 29 29 33 38 43 46 47 47 47 49 52 54 55 54 53 53 53 54 54 54 53 53 55 57 58 57 58 61 61 59 57 56 55 55 55
49 48 49 49 47 44 43 44 44 42 42 42 42 42 40 39 38 38 36 35 36 36 36 35 34 33 33 32 31 31 33 37 42 46 49 51 51 51 52 55 57 57 57 56 55 55 55 56 56 54 54 55 56 55 55 57 59 59 57 56 56 55 55
48 49 50 50 48 47 47 47 45 44 43 43 43 43 42 40 39 39 38 37 36 37 37 36 35 35 34 34 33 32 33 36 41 46 49 51 52 53 54 55 57 59 60 60 59 57 56 57 58 57 56 56 55 55 55 55 55 56 56 56 56 56 55
49 50 50 50 49 49 49 48 45 44 43 42 42 41 41 41 40 39 39 38 37 37 38 38 37 36 36 36 35 34 34 35 39 44 48 51 52 53 55 56 57 59 61 62 62 61 60 59 58 58 58 58 57 58 58 58 58 57 56 56 56 55 55
50 51 51 51 50 49 48 46 44 43 43 43 43 42 41 41 41 41 40 39 38 38 39 39 39 38 38 38 37 36 35 36 37 41 46 50 53 53 55 57 58 58 60 61 63 63 62 62 62 61 60 59 59 59 59 59 59 59 58 57 56 55 57
52 52 53 52 50 48 48 46 44 43 44 45 46 45 44 43 43 42 42 41 40 39 40 40 40 40 39 39 39 38 37 37 38 39 42 47 52 54 55 57 58 58 58 59 60 61 63 63 63 63 63 62 61 61 60 60 59 58 58 58 58 59 60
54 55 54 52 50 49 48 46 45 46 47 47 48 48 47 46 45 44 44 43 42 41 41 41 41 41 40 40 40 40 39 38 39 40 41 44 48 53 55 57 58 59 60 60 59 60 62 64 63 63 63 63 63 62 62 62 62 61 61 61 62 63 64
56 55 53 51 50 50 49 48 49 49 49 49 50 50 49 48 47 45 45 44 44 43 42 42 42 42 42 41 41 41 40 40 40 41 42 43 45 49 54 57 58 59 60 61 62 62 63 64 64 64 65 64 64 63 63 64 64 64 63 63 64 65 66
55 53 51 50 50 50 50 51 51 51 51 51 51 50 50 48 47 46 45 45 45 44 44 43 43 43 43 42 42 42 41 41 41 41 43 44 44 46 50 55 59 60 59 60 61 63 64 65 65 65 66 67 67 67 67 66 66 66 65 65 65 66 66
53 51 50 50 51 51 52 53 53 52 52 51 50 49 48 46 46 46 45 45 46 46 45 45 45 44 44 44 44 43 43 42 42 42 43 44 45 46 47 51 56 60 61 61 61 62 63 64 65 65 66 67 69 70 71 70 70 69 68 68 67 68 67
52 51 51 52 52 53 53 54 53 53 52 51 49 46 45 44 44 45 46 46 47 47 47 46 46 46 45 45 45 45 45 44 44 43 43 44 45 46 47 48 52 57 61 63 63 63 64 64 65 65 66 67 69 71 72 73 73 72 72 71 70 70 70

ECMWFFLT1_250_spd_120.txt.gz
Wind_Speed
45 44 44 44 43 41 39 37 36 35 36 37 37 38 40 42 43 44 44 45 45 44 43 43 42 42 43 44 46 48 48 49 48 48 47 44 40 39 40 42 42 39 35 38 45 46 42 39 37 39 39 37 36 37 37 37 33 30 29 29 28 25 22
42 41 41 40 39 37 35 34 33 33 34 35 35 36 37 39 40 42 44 45 46 46 45 44 44 44 45 46 47 47 47 47 48 48 49 47 42 40 39 40 42 40 37 36 42 46 44 41 38 39 40 37 37 38 39 38 35 32 31 30 31 30 26
39 39 38 37 36 35 34 34 34 35 35 35 36 36 37 37 39 40 42 44 45 46 45 45 45 46 47 48 47 46 46 46 48 48 49 48 44 41 38 38 39 38 36 35 39 44 43 41 40 40 40 38 39 39 39 39 37 35 33 32 33 32 29
36 36 36 35 35 34 34 35 36 36 36 36 36 36 37 38 39 40 42 43 44 45 45 45 46 47 48 48 46 45 45 46 47 48 48 48 45 41 36 35 36 36 36 34 37 40 39 38 40 42 43 41 40 39 39 39 39 38 36 35 35 33 31
35 36 35 35 34 34 35 36 37 37 38 38 38 37 37 38 39 40 41 42 43 44 45 45 46 46 46 46 45 46 47 47 48 48 48 47 45 41 34 32 33 35 35 33 35 39 37 36 39 42 44 43 41 40 40 39 39 39 38 37 36 33 32
36 36 35 34 34 35 35 36 37 38 39 40 40 39 39 39 39 39 39 40 42 43 44 44 44 44 44 44 44 46 48 49 49 49 48 47 45 40 33 33 35 36 34 31 35 40 38 37 38 40 43 43 42 41 40 40 40 40 41 40 37 35 34
35 34 34 34 35 35 36 36 37 39 40 41 41 41 40 40 39 39 38 39 40 41 42 42 42 42 43 44 44 46 48 49 50 49 48 47 44 38 33 35 39 37 33 31 36 40 40 38 37 37 40 41 41 40 40 40 40 41 43 41 36 35 36
34 33 34 34 35 36 37 37 38 40 41 41 42 41 41 40 40 39 38 38 39 40 40 41 41 41 42 43 44 46 48 49 50 50 48 46 42 36 32 35 39 36 31 32 37 40 39 37 35 35 38 39 39 39 40 39 39 40 42 41 37 37 38
35 35 35 35 36 37 38 39 40 42 42 42 42 42 40 40 39 38 38 38 38 39 40 40 41 41 42 42 43 45 47 49 49 49 48 44 38 33 30 33 37 34 31 35 39 39 37 34 32 33 36 38 38 39 38 38 39 41 42 41 39 39 40
37 36 36 36 37 38 40 41 43 43 44 43 42 41 40 39 38 37 37 37 38 39 39 40 40 41 41 41 42 44 46 47 48 48 45 39 31 28 26 30 33 32 33 37 39 36 33 31 31 32 34 36 36 36 36 36 38 39 40 41 41 41 42
38 36 36 36 37 39 41 42 43 42 42 43 42 41 40 38 37 36 36 36 37 38 39 39 40 40 39 39 40 42 43 45 45 44 39 30 22 21 23 27 29 30 34 37 36 33 31 30 29 30 32 33 34 34 35 36 37 38 39 41 43 44 45
37 36 36 37 38 39 39 39 38 38 39 40 41 41 40 38 37 36 36 36 37 37 38 38 39 39 38 37 38 39 40 42 41 36 28 18 14 17 22 25 26 28 34 37 33 30 30 28 28 29 31 32 33 35 36 36 37 38 40 43 45 45 45
37 37 37 37 37 37 36 36 37 37 38 39 39 39 38 38 37 36 35 36 36 37 37 37 38 38 36 35 36 36 37 38 34 26 17 10 13 17 21 23 24 27 34 37 32 29 30 29 28 29 32 33 34 35 35 36 37 38 39 41 42 42 41
38 37 37 36 37 37 38 38 39 39 39 39 39 38 37 37 36 35 35 35 35 36 36 36 36 36 35 33 33 33 33 33 26 17 11 11 15 18 20 21 22 26 33 36 33 31 31 30 29 31 32 33 34 35 35 36 36 36 37 39 39 39 40
39 38 37 37 38 38 39 40 40 39 38 37 37 37 36 36 35 34 34 35 35 35 35 35 35 34 33 31 30 29 30 29 20 14 12 14 16 19 21 20 22 28 33 35 35 34 34 33 33 33 34 35 36 36 37 38 37 36 37 40 41 42 42
39 39 38 38 39 39 40 40 40 40 38 36 35 35 35 35 35 35 35 35 35 35 35 35 34 33 32 30 28 27 27 26 18 15 16 17 18 20 22 22 22 28 33 34 35 36 36 37 37 38 39 39 39 39 40 41 41 40 41 42 44 45 46
40 40 39 39 40 40 41 41 42 41 39 37 35 35 35 35 35 35 35 35 35 34 34 34 34 33 31 29 26 25 25 24 19 19 19 20 21 23 25 26 24 27 32 33 33 35 37 38 39 40 41 42 42 42 43 43 43 43 43 43 45 48 48
42 41 40 41 41 41 42 43 43 42 41 39 38 38 38 37 36 36 36 36 35 35 34 34 33 32 30 28 25 23 23 23 20 21 23 23 24 26 28 29 27 28 31 33 33 34 36 38 39 39 40 41 41 43 43 43 44 44 44 45 46 48 48
43 42 42 42 42 43 44 44 45 44 42 41 40 40 40 40 39 37 37 36 36 35 35 34 33 32 30 28 25 23 22 23 21 22 25 25 26 28 30 32 32 31 33 34 35 34 35 37 39 38 38 38 39 41 43 43 45 46 47 47 48 48 47
45 44 43 44 44 44 45 46 46 45 44 42 42 42 42 41 41 39 38 37 36 36 36 35 34 33 31 28 25 23 22 23 22 22 26 27 27 28 31 33 34 34 35 36 36 36 36 37 38 38 38 39 40 43 44 45 46 48 48 48 48 49 49
46 45 45 45 45 45 46 47 47 46 44 43 42 43 43 43 42 40 39 38 36 35 35 35 34 34 32 29 26 24 22 23 23 24 26 29 29 30 31 34 37 37 37 36 35 36 37 39 39 39 41 43 44 45 46 46 47 48 48 49 49 50 50
46 46 45 46 46 46 47 47 47 46 44 43 43 43 43 44 43 40 39 39 38 36 35 35 34 34 33 30 27 25 24 23 24 26 28 30 33 33 32 35 39 40 39 38 37 38 39 40 42 43 45 46 47 47 46 46 46 47 48 49 50 50 51
47 47 47 46 47 47 48 47 47 46 45 44 43 43 44 43 41 39 39 39 38 36 35 34 34 34 33 32 29 27 25 24 25 27 29 31 34 37 36 36 38 42 44 43 42 41 41 41 42 45 47 48 49 48 47 46 46 48 49 51 51 52 53
49 48 48 48 48 49 48 48 48 47 46 45 44 44 44 43 40 38 39 40 39 37 35 34 34 34 33 33 31 29 27 26 26 27 30 34 35 38 40 40 38 40 44 46 46 45 44 44 44 45 46 47 48 49 50 50 50 51 52 53 54 55 55
50 49 49 49 50 50 49 48 48 48 47 46 45 45 45 44 41 39 39 40 39 38 36 35 34 33 33 33 32 30 29 28 28 27 30 34 37 39 41 43 43 43 44 47 48 49 48 48 48 48 47 47 47 47 48 50 52 54 55 55 55 55 55
50 49 49 50 51 50 49 49 49 49 47 45 45 45 46 45 43 41 41 40 40 38 37 36 34 34 34 33 33 32 31 30 30 29 29 33 38 41 42 44 46 47 48 49 50 50 51 51 51 51 51 51 50 49 47 47 49 52 54 55 55 56 56
50 50 51 52 51 50 50 50 50 49 47 45 45 46 46 45 43 42 41 40 40 39 37 36 36 34 34 34 33 33 32 32 32 31 31 32 35 40 43 45 46 47 49 51 51 51 51 52 53 53 53 54 54 54 53 50 50 51 53 54 54 55 55
52 52 53 52 52 51 51 51 51 49 48 46 46 46 46 45 43 42 41 40 40 39 38 37 36 36 35 35 35 34 34 34 34 33 33 33 34 38 42 45 46 47 49 50 51 52 52 53 55 55 55 55 54 54 55 55 54 54 55 55 56 55 55
54 54 54 53 52 52 52 53 52 50 48 47 47 47 47 46 44 42 41 40 40 40 40 38 37 38 37 36 36 36 35 36 36 35 35 35 35 36 39 44 47 48 50 51 51 51 51 53 55 57 57 57 57 57 57 57 58 58 58 59 60 60 60
56 55 54 54 54 54 54 53 52 50 48 48 49 49 49 48 46 44 43 42 41 42 43 41 40 39 39 38 37 37 37 37 37 37 38 37 37 37 38 41 45 48 51 52 53 53 52 52 54 56 58 59 61 61 60 60 60 60 61 62 63 64 65
56 56 55 55 55 55 55 54 52 50 49 50 50 51 52 50 47 46 44 43 43 45 46 45 43 41 40 40 40 39 39 39 39 39 39 39 39 39 38 39 42 46 50 53 55 56 56 55 55 55 56 59 60 61 61 62 62 62 62 63 64 65 66
57 56 56 56 56 55 55 53 51 50 50 51 52 54 54 51 49 47 46 45 46 48 48 47 46 44 42 41 41 41 42 42 41 41 41 41 40 40 40 40 41 44 47 51 54 56 58 58 58 57 56 57 59 60 60 60 61 62 62 63 64 65 65
57 57 57 57 56 56 55 53 52 51 52 53 54 55 54 52 50 49 48 48 49 50 50 48 47 46 44 43 42 42 43 43 43 43 42 42 42 42 42 42 42 43 45 48 52 55 58 59 60 60 60 59 59 60 61 62 62 62 62 62 63 64 64
58 58 57 57 57 56 55 53 52 52 53 54 56 56 54 52 51 51 51 51 52 52 51 50 48 47 45 44 43 43 43 44 44 44 43 43 43 43 43 43 44 44 45 47 49 52 55 58 61 62 63 63 63 63 63 64 65 65 65 65 65 65 64
58 58 57 57 57 55 54 53 53 54 55 56 56 55 54 53 52 52 53 53 54 53 52 51 49 47 45 43 43 43 43 43 44 44 44 44 44 44 45 45 45 45 46 47 49 51 53 56 59 62 64 65 66 66 65 64 65 66 67 68 68 68 67
58 58 58 57 56 55 54 54 54 55 56 56 56 54 53 53 54 54 55 55 55 54 52 50 48 46 44 42 42 43 43 44 44 44 45 45 46 46 46 46 47 47 47 48 49 50 52 54 57 60 63 65 67 68 68 67 66 66 67 68 69 69 70
58 58 58 56 55 54 55 55 56 57 57 56 55 54 55 55 56 56 56 55 54 53 51 48 46 44 43 42 42 43 43 44 45 45 46 46 47 47 47 48 48 48 49 49 49 50 51 53 55 57 60 63 67 69 70 71 70 70 69 69 69 70 70

ECMWFFLT1_250_spd_123.txt.gz
Wind_Speed
41 41 40 39 38 37 36 35 34 33 33 32 31 31 30 30 30 31 32 32 33 33 34 35 35 36 38 39 41 42 44 45 45 46 47 48 48 48 46 41 39 38 37 36 36 37 38 39 39 37 36 38 40 40 40 40 41 40 38 37 38 37 35
39 39 38 37 36 35 34 33 33 33 33 32 32 32 32 32 32 32 32 33 33 34 35 36 36 37 38 40 41 43 45 46 46 46 47 49 49 48 46 42 40 40 39 37 37 37 38 39 40 38 35 37 40 42 42 41 42 41 40 39 39 39 37
36 35 35 34 34 34 33 34 34 34 34 33 32 32 32 33 32 32 33 33 34 35 35 36 36 37 38 40 41 43 44 45 46 47 47 48 48 47 46 44 41 40 39 38 38 38 38 39 41 39 36 36 41 44 44 44 44 42 41 41 40 40 40
32 32 32 33 33 34 34 35 36 35 34 33 32 31 32 33 33 34 34 35 35 36 36 36 37 37 38 39 41 42 43 44 45 46 46 45 45 45 46 45 43 41 39 39 40 38 37 38 42 41 38 38 42 46 46 46 45 42 41 42 41 40 40
29 31 32 33 33 34 35 35 35 34 34 33 32 32 33 34 35 35 36 36 37 37 37 37 37 37 38 38 40 41 42 43 43 43 43 43 43 44 45 46 45 44 41 41 40 37 36 37 42 43 42 39 40 45 47 46 46 43 41 42 41 40 40
30 31 32 33 33 34 34 34 34 34 35 34 34 35 35 36 37 37 38 38 39 39 38 38 37 37 37 38 39 39 40 41 41 41 41 41 42 43 44 45 46 45 43 43 39 35 35 37 41 43 42 39 39 45 48 47 46 43 41 42 42 41 41
30 31 32 33 33 33 34 33 34 35 36 37 37 37 38 39 39 40 40 40 40 39 39 38 37 36 37 37 38 38 39 39 39 40 40 40 42 43 44 45 46 46 45 43 39 35 35 37 40 41 40 38 40 45 48 47 45 42 41 42 42 42 42
32 32 32 33 34 34 34 34 35 36 37 37 38 39 40 40 41 41 42 41 41 40 39 38 37 36 36 36 36 37 37 37 38 38 39 40 42 44 45 45 46 46 43 39 34 32 35 38 39 39 38 38 40 44 47 46 44 43 41 41 41 42 43
36 34 34 34 34 35 34 35 36 37 37 37 38 39 39 40 41 42 42 42 41 40 39 38 37 37 36 36 36 36 36 36 36 37 39 40 41 43 45 45 44 41 35 31 29 30 35 36 36 37 38 38 39 42 44 45 45 44 42 40 41 42 41
38 36 35 35 35 35 35 35 36 36 36 36 37 37 38 39 41 42 42 42 41 40 39 38 38 37 37 36 36 36 36 36 36 36 38 38 39 42 43 41 37 31 25 24 26 30 33 33 34 37 39 38 37 37 39 42 43 43 41 40 41 41 40
36 35 35 35 35 35 35 35 35 35 35 36 36 37 38 39 41 42 42 42 41 40 38 37 37 37 36 36 36 36 36 36 35 35 36 36 37 38 37 33 28 21 19 21 26 30 30 30 34 37 38 37 34 33 34 37 38 39 40 40 40 40 39
35 34 34 35 35 35 34 34 35 35 35 36 36 37 39 40 41 41 42 41 40 38 37 36 36 36 36 35 35 35 35 34 33 33 33 34 34 32 27 22 16 13 15 22 27 28 26 28 32 35 34 33 32 31 33 34 34 35 37 38 38 39 39
35 35 35 35 35 35 35 35 35 35 36 36 37 38 39 40 41 42 42 41 39 38 36 35 35 35 35 35 35 35 34 32 31 31 31 31 31 25 17 11 7 9 15 22 26 26 27 30 32 30 28 28 28 29 31 32 33 35 37 37 37 37 36
36 37 37 36 36 36 36 36 36 36 37 37 38 38 39 40 41 42 43 42 40 39 38 37 35 35 34 34 34 34 33 31 30 29 29 29 27 19 11 8 8 11 16 21 25 28 30 30 28 26 24 24 24 24 27 30 31 34 35 35 34 34 33
39 39 38 38 37 37 37 37 37 37 38 38 39 39 40 40 42 43 44 43 41 40 40 39 38 36 35 34 34 34 33 31 29 28 28 27 24 17 13 13 13 17 19 22 24 29 31 29 25 25 25 24 23 23 26 29 30 33 34 34 33 32 33
42 42 41 40 39 38 38 38 38 39 39 40 40 40 41 42 42 44 44 43 42 42 41 41 40 39 37 36 34 33 32 30 28 27 27 25 22 18 17 17 17 19 20 23 25 28 31 30 28 28 27 25 25 25 27 29 31 34 37 36 34 33 34
45 44 43 42 41 40 39 39 40 40 40 41 42 42 43 43 43 44 44 43 43 43 43 43 42 41 39 37 35 34 32 30 28 27 26 24 21 20 21 21 20 20 19 21 25 30 33 34 31 30 30 29 28 29 31 32 34 37 39 38 36 36 36
46 45 44 43 43 42 41 41 42 42 42 43 44 44 44 44 44 45 45 45 45 45 44 43 43 41 39 38 36 34 32 30 28 27 27 25 22 21 23 24 24 23 20 20 24 30 34 37 36 34 33 33 33 35 37 39 39 41 42 41 40 40 38
47 46 45 45 45 44 44 44 44 44 45 45 45 46 46 45 46 46 45 46 46 46 45 43 42 41 39 37 36 35 33 31 28 27 27 26 23 22 25 27 26 25 24 24 26 30 34 37 39 38 36 36 38 40 42 44 45 45 46 45 44 43 42
48 47 47 47 47 46 46 46 47 47 47 47 47 47 47 47 47 47 47 47 47 47 45 44 42 40 38 37 36 35 34 32 29 27 27 28 26 23 25 28 28 27 27 27 29 33 35 36 37 38 38 38 39 41 43 45 47 48 49 49 47 46 44
50 49 49 48 48 48 48 48 48 49 49 49 49 49 49 49 49 49 48 48 48 48 46 45 43 40 38 36 35 34 34 33 30 28 28 29 28 25 25 29 31 31 30 31 32 35 37 38 38 39 41 41 41 41 43 45 47 50 51 50 49 47 46
52 51 51 50 50 49 49 49 50 50 50 51 51 51 51 50 50 50 50 50 49 48 47 45 43 41 39 38 36 34 33 33 31 30 29 29 30 28 27 29 32 34 33 34 36 38 39 40 42 43 44 45 45 45 45 47 48 50 50 49 48 47 45
54 53 52 52 51 50 50 50 51 52 52 52 53 52 52 52 52 51 51 51 50 48 47 46 44 43 41 39 37 34 33 32 32 31 30 30 31 31 29 29 32 35 36 36 38 40 41 41 43 45 46 47 47 47 48 49 50 50 49 48 48 48 48
55 54 53 53 52 51 51 51 52 53 53 53 53 53 52 52 53 53 52 52 51 49 47 46 45 43 42 40 38 35 33 32 32 32 31 31 32 33 32 31 33 36 38 38 39 41 43 43 43 45 46 48 49 49 49 50 51 51 51 50 50 51 51
56 56 55 54 53 52 52 52 53 53 54 54 54 53 53 53 54 53 53 52 51 49 47 45 44 43 41 40 38 35 33 32 33 33 32 32 33 34 34 34 34 36 40 41 41 42 44 45 46 46 47 48 49 50 50 51 51 52 53 52 52 53 54
57 57 57 56 55 54 53 53 53 54 55 55 55 54 54 55 55 54 54 54 52 50 48 46 44 43 41 40 38 36 34 33 33 33 33 33 34 35 36 36 35 36 39 43 45 45 45 46 47 48 49 49 50 51 52 53 53 54 54 54 54 55 56
58 58 58 57 56 55 55 54 54 55 55 55 56 56 56 56 56 55 55 54 53 51 48 46 45 44 42 40 39 36 35 34 34 34 34 35 35 36 38 38 37 37 38 42 46 48 48 48 48 50 50 51 51 52 54 55 56 55 55 55 55 56 58
60 59 59 58 58 57 56 56 56 56 56 56 56 57 57 56 56 56 56 55 53 51 49 47 46 45 43 41 39 38 36 34 34 35 36 36 36 37 39 39 39 39 39 41 44 48 50 50 50 51 51 52 52 53 54 55 56 56 55 55 55 56 57
63 61 60 59 59 58 58 58 58 58 58 58 58 57 57 57 57 57 56 55 54 51 49 48 48 46 45 42 41 39 38 36 36 36 37 38 38 38 40 41 41 41 41 42 43 46 49 51 51 52 52 54 55 55 56 56 57 57 56 55 55 55 56
64 62 61 61 60 60 60 60 60 60 60 60 59 59 59 58 58 57 56 55 54 52 50 49 49 48 46 44 42 41 40 40 39 39 38 39 40 40 41 42 43 43 43 43 43 45 47 50 52 53 53 54 56 58 59 60 60 60 60 59 59 58 58
63 63 63 63 63 62 62 61 61 61 61 61 60 60 60 59 58 57 56 55 54 52 50 50 49 49 47 45 43 42 42 42 42 42 41 40 41 42 42 43 44 45 45 45 45 45 46 48 51 54 55 56 57 58 60 61 62 63 63 63 63 63 63
65 65 66 65 64 64 63 63 63 62 62 61 61 61 60 59 58 57 56 55 53 52 51 50 50 49 47 45 44 43 44 44 45 44 43 42 42 42 43 44 45 46 47 47 47 47 47 48 49 52 55 57 58 60 61 61 62 63 64 64 64 65 66
66 67 66 66 65 65 64 64 63 63 62 61 61 60 59 59 58 57 56 55 53 52 51 51 50 49 48 46 46 47 47 48 48 47 45 44 43 43 44 45 46 47 48 49 49 49 49 49 50 51 53 56 58 61 62 63 63 63 64 65 66 66 67
66 66 66 65 65 64 63 63 62 61 60 60 60 59 59 58 57 57 55 54 53 52 52 52 51 50 49 49 50 51 52 51 50 49 47 45 43 43 44 45 46 48 49 50 51 51 51 51 51 51 52 54 57 60 62 64 65 65 65 66 67 67 68
66 65 65 64 63 62 62 61 59 59 59 59 59 59 58 58 57 56 55 54 53 53 53 53 52 52 52 53 53 54 54 54 52 50 47 45 44 43 43 45 46 48 49 50 51 52 52 52 52 53 53 53 55 57 60 63 65 66 67 68 68 68 68
64 63 62 62 61 60 59 58 58 58 58 58 58 58 58 57 56 55 55 54 54 54 54 54 54 54 55 55 56 56 55 54 52 49 46 45 43 43 43 44 46 47 48 50 51 51 52 53 53 54 54 55 55 56 58 61 64 66 68 69 70 71 70
62 61 60 59 58 57 57 57 58 58 58 58 57 57 57 57 56 55 55 55 55 56 56 56 56 57 57 57 57 57 56 53 50 48 45 44 43 43 43 44 45 47 48 49 50 51 52 53 53 54 55 56 56 57 58 60 62 65 67 69 71 73 73